[{"header": {"dx": 0.06612293990616946, "dy": 0.0552356325346848, "nx": 98, "ny": 59, "la1": 35.046912555036876, "la2": 31.78801023549047, "lo1": -121.43107172385933, "lo2": -114.95102361305473, "refTime": "2026041306", "parameterCategory": 1, "parameterNumber": 2}, "data": [14.6, 14.6, 14.6, 14.58, 14.37, 14.37, 14.37, 14.37, 14.37, 14.37, 13.55, 11.62, 12.22, 9.3, 7.27, 6.7, 4.8, 4.8, 6.71, 6.71, 8.22, 8.53, 8.59, 7.9, 9.08, 9.42, 9.42, 10.01, 8.53, -0.0, -0.0, -0.0, -0.0, -12.07, -10.73, -9.39, -9.55, -6.98, -5.93, -6.9, -7.6, -9.33, 0.0, 9.17, 11.9, 13.99, 16.91, 18.78, 16.39, 14.39, 13.68, 13.02, 12.52, 12.35, 12.82, 11.87, 12.65, 13.02, 12.74, 12.99, 12.36, 12.79, 12.79, 11.8, 12.04, 12.45, 13.89, 14.71, 14.71, 14.71, 13.99, 13.99, 14.71, 15.77, 16.54, 16.0, 15.98, 15.87, 15.99, 14.16, 12.3, -11.18, -3.39, -3.82, 0.0, 5.31, 7.69, 11.99, 13.86, 13.44, 13.44, 11.53, 8.31, 8.94, 9.16, 10.43, 10.86, 10.73, 14.16, 14.6, 14.6, 14.42, 14.37, 14.37, 14.81, 14.81, 14.37, 14.42, 13.38, 12.9, 10.88, 9.32, 8.22, 5.75, 4.6, 5.2, 5.0, 5.7, 7.54, 8.53, 8.53, 8.85, 7.9, 8.94, 9.3, 9.67, 8.22, -0.0, -0.0, -0.0, -10.79, -12.07, -9.83, -8.49, -6.7, -4.83, -4.71, -6.32, -0.0, -0.0, 12.96, 13.88, 16.54, 17.35, 13.91, 11.27, 13.26, 12.37, 11.54, 12.16, 12.16, 12.27, 12.27, 12.65, 13.03, 13.13, 12.74, 13.39, 12.99, 12.79, 11.97, 12.18, 11.85, 13.81, 13.99, 13.99, 14.3, 14.94, 15.36, 14.71, 15.27, 15.41, 16.12, 16.17, 15.78, 15.87, 15.99, 14.16, 12.3, -11.18, -3.39, -3.82, 0.0, 5.31, 7.69, 11.99, 13.86, 13.44, 13.44, 11.53, 8.31, 8.94, 9.16, 10.43, 10.86, 10.73, 14.16, 14.6, 14.6, 14.42, 14.37, 14.37, 14.81, 14.86, 14.86, 14.16, 12.52, 10.05, 11.03, 10.09, 8.24, 5.95, 5.75, 5.75, 5.75, 6.44, 6.2, 8.22, 7.26, 7.82, 7.69, 7.26, 10.0, 10.73, -0.0, -0.0, -0.0, -0.0, -5.15, -11.6, -9.83, -8.49, -5.69, 0.0, 4.2, 10.28, 6.45, 10.82, 14.39, 15.99, 12.29, 6.36, 6.36, 9.43, 11.17, 12.27, 12.37, 12.0, 12.0, 12.0, 12.13, 12.89, 13.59, 13.34, 13.19, 13.39, 13.35, 12.38, 12.18, 12.25, 12.81, 12.65, 13.58, 13.68, 13.8, 14.13, 14.79, 15.96, 15.34, 15.34, 16.48, 16.05, 15.65, 15.54, 14.29, 13.82, 11.87, -8.22, -3.53, -4.1, 0.0, 14.3, 11.99, 9.8, 11.53, 12.39, 12.39, 11.9, 7.44, 8.31, 7.69, 9.8, 10.18, 11.37, 14.16, 14.16, 14.6, 14.6, 14.58, 14.42, 14.86, 14.86, 14.6, 13.86, 12.04, 10.37, 11.21, 9.48, 7.9, 7.9, 7.26, 5.4, 4.48, 5.0, 6.2, 6.44, 6.71, 6.76, 7.95, 9.8, 6.97, 10.28, -6.64, -2.02, -1.44, -0.0, -0.0, -0.0, -0.0, 10.28, 9.83, 7.9, 11.03, 11.99, 9.66, 14.66, 15.64, 12.96, 9.24, 6.52, 7.82, 9.8, 10.12, 11.17, 11.53, 12.79, 12.39, 11.9, 12.42, 12.79, 13.48, 13.43, 13.62, 13.2, 12.79, 11.8, 12.11, 12.37, 11.68, 11.54, 12.52, 12.11, 12.76, 12.73, 14.75, 15.83, 16.39, 14.69, 15.65, 15.46, 14.16, 13.31, 15.65, 13.41, 11.62, -5.4, -3.68, -10.12, -6.6, -0.0, 2.89, 8.58, 11.09, 11.53, 13.42, 10.43, 9.48, 4.24, 6.9, 8.59, 10.91, 11.99, 14.18, 14.18, 14.62, 14.6, 14.6, 14.6, 15.05, 15.07, 14.72, 13.86, 11.98, 10.37, 10.62, 9.3, 8.24, 8.22, 7.26, 7.24, 4.48, 3.82, 6.44, 5.75, 4.8, 5.98, 6.24, 6.7, 7.82, 6.45, -0.0, -1.93, -1.69, -1.45, -0.0, 3.19, 6.97, 8.53, 10.0, 12.58, 15.65, 12.96, 11.53, 12.33, 10.75, 9.8, 8.31, 7.69, 9.8, 11.53, 12.39, 12.39, 10.73, 11.5, 11.5, 11.53, 12.42, 12.13, 13.07, 13.02, 13.2, 12.79, 12.18, 11.99, 11.68, 11.06, 9.61, 10.47, 11.06, 11.38, 12.19, 12.56, 14.0, 16.3, 17.36, 17.81, 14.69, 13.81, 12.94, 12.08, 14.11, 13.86, -5.2, -6.7, -12.39, -10.75, -6.6, -2.98, 2.98, 9.22, 10.82, 13.02, 11.68, 10.82, 7.19, 4.1, 5.8, 9.48, 11.64, 12.56, 14.18, 14.18, 14.18, 14.62, 14.6, 14.62, 15.07, 14.72, 14.75, 13.83, 11.86, 9.75, 10.21, 9.6, 9.58, 8.73, 8.22, 5.4, 2.93, 2.45, 3.96, 4.75, 4.98, 4.81, 6.21, 6.21, 6.45, 6.2, 5.75, 2.19, -0.0, -0.0, -0.0, 4.48, 9.48, 10.18, 10.99, 12.98, 16.91, -0.0, 3.16, 8.94, 8.91, 8.94, 8.78, 8.83, 8.43, 14.75, 13.86, 11.99, 10.79, 10.73, 10.82, 10.82, 12.42, 13.07, 13.28, 13.28, 13.57, 12.72, 11.85, 11.17, 8.68, 7.6, 9.17, 10.22, 10.11, 10.75, 11.38, 13.01, 13.63, 14.26, 15.39, 16.1, 17.52, 15.39, 12.86, 10.41, 0.0, 0.0, -8.85, -10.43, -16.09, -8.93, -9.12, -6.8, -0.0, 9.22, 10.02, 9.73, 9.16, 9.8, 8.38, 5.8, 6.0, 11.16, 12.56, 12.33, 14.18, 14.18, 14.18, 14.62, 14.62, 14.72, 14.72, 14.75, 14.3, 13.74, 11.84, 9.33, 9.8, 9.6, 11.21, 9.3, 9.66, 8.85, 3.04, -0.0, -0.0, -0.0, -0.0, 5.81, 9.12, 8.85, 7.82, 7.36, 5.8, 5.95, 4.8, 1.84, 1.93, 5.9, 9.08, 10.65, 11.64, 12.39, 11.53, -0.0, -0.0, 4.81, 8.05, 9.31, 9.89, 9.8, 10.47, 12.52, 13.86, 12.39, 9.8, 9.48, 11.09, 11.88, 12.74, 13.15, 13.27, 13.15, 13.19, 12.71, 11.6, 7.36, 5.49, 6.19, 7.4, 9.78, 10.95, 11.2, 11.68, 13.16, 14.39, 13.92, 14.56, 15.91, 16.41, 16.55, 14.75, 12.52, 12.07, -6.2, -11.8, -13.39, -16.99, -11.7, -9.39, -6.6, -0.0, 5.81, 7.76, 8.87, 8.73, 9.8, 9.16, 7.69, 9.48, 11.6, 12.89, 12.45, 13.75, 14.19, 14.18, 14.18, 14.72, 14.72, 14.75, 14.75, 14.28, 13.29, 10.8, 9.26, 9.63, 10.0, 11.62, 10.0, 10.35, 10.37, 7.78, 4.24, -0.0, 13.41, -13.41, 15.65, 6.8, 10.75, 8.68, 8.93, 8.85, 8.05, 5.4, 2.93, 5.6, 7.51, 7.9, 10.73, 11.6, 10.46, 10.79, 5.2, -0.0, 3.36, 10.05, 12.01, 12.36, 11.33, 8.85, 9.39, 8.57, 7.59, 4.1, 9.48, 12.39, 13.15, 13.72, 13.31, 12.88, 12.96, 12.52, 12.52, 10.79, 4.52, 4.81, 5.78, 7.63, 10.68, 11.79, 13.02, 13.59, 13.89, 14.5, 15.08, 15.2, 15.65, 16.05, 15.16, 14.75, 13.86, 11.6, 16.09, 16.99, -14.13, -16.99, -11.38, -9.12, -5.31, -0.0, 2.89, 7.13, 8.59, 9.17, 8.3, 7.69, 8.05, 10.18, 11.99, 12.45, 11.53, 13.75, 14.19, 14.19, 14.19, 14.72, 14.72, 14.75, 14.75, 14.28, 12.85, 11.23, 10.95, 12.46, 12.14, 11.5, 11.2, 11.6, 11.5, 10.73, 9.48, 11.99, 13.41, 0.0, -14.3, -0.0, 7.9, -0.0, -0.0, 11.06, 10.12, 9.8, 6.8, 10.75, 11.53, 10.41, 10.4, 11.18, 11.18, 9.97, 7.59, 4.1, 4.66, 10.43, 10.73, 11.99, 10.99, 6.6, 4.81, 6.8, 7.66, 7.54, 7.78, 12.39, 13.59, 13.86, 12.96, 11.98, 12.07, 11.62, 13.41, 7.69, 3.47, 3.88, 4.95, 7.88, 11.38, 13.76, 14.22, 15.18, 14.72, 14.75, 14.64, 14.9, 14.08, 13.15, 13.44, 14.18, 14.75, 12.52, 13.26, 16.39, 15.59, -17.43, -14.79, -10.75, -5.15, -0.0, -0.0, 3.04, 6.44, 7.82, 6.67, 8.05, 10.43, 11.8, 12.13, 11.88, 9.8, 13.75, 13.75, 14.19, 14.19, 14.72, 14.72, 14.75, 14.75, 14.27, 12.85, 12.27, 12.53, 11.66, 12.96, 13.15, 12.89, 13.28, 13.7, 13.19, 11.99, 11.6, 12.3, 12.39, 10.12, 10.12, 5.2, -0.0, 10.73, 10.43, 13.57, 13.99, 16.54, 15.65, 13.86, 11.45, 10.38, 10.73, 9.39, 11.03, 10.79, 9.17, 10.37, 9.97, 10.4, 11.03, 9.16, 3.6, 2.32, 5.5, 8.94, 9.22, 8.2, 8.31, 9.48, 12.04, 12.52, 10.79, 9.08, 9.67, 9.48, 2.02, 2.72, 3.49, 6.47, 9.23, 12.46, 14.39, 15.36, 14.22, 13.72, 13.25, 12.72, 13.28, 13.19, 12.36, 12.5, 12.65, 13.59, 9.66, 12.01, 14.19, 15.54, 17.35, -16.99, -14.99, -12.39, -4.1, -0.0, -0.0, 3.82, 6.7, 7.78, 9.8, 11.8, 13.2, 12.51, 10.65, 8.31, 13.62, 13.75, 14.19, 14.72, 14.72, 14.72, 14.75, 14.75, 14.27, 13.29, 12.71, 13.39, 13.44, 13.39, 13.96, 13.88, 15.49, 15.09, 15.18, 16.39, 16.76, 16.54, 15.77, 13.19, 12.27, 11.6, 9.2, 10.28, 12.96, 13.86, 12.96, 12.96, 0.0, 0.0, 10.0, 12.07, 11.62, 11.62, 11.45, 11.88, 11.17, 11.5, 10.4, 11.18, 10.27, 6.98, 2.0, 2.19, 5.4, 9.17, 7.06, 5.98, 6.81, 7.21, 7.06, 7.38, 8.43, 0.0, -6.7, -3.36, 1.37, 3.82, 4.23, 7.2, 10.33, 13.18, 14.73, 14.26, 14.6, 10.79, 6.94, 9.69, 12.07, 12.27, 11.09, 11.09, 14.3, 5.09, 8.74, 11.77, 12.85, 13.12, 15.36, 14.39, -14.75, -13.41, -11.87, -0.0, -0.0, 5.0, 8.53, 11.16, 13.15, 13.88, 13.99, 12.42, 10.12, 9.16, 13.62, 13.62, 14.19, 14.72, 14.72, 14.75, 14.75, 14.75, 14.27, 13.29, 13.15, 13.44, 14.31, 13.88, 13.18, 12.27, 12.24, 14.42, 15.68, 16.48, 16.31, 15.78, 15.53, 16.09, 13.41, 12.96, 12.52, 8.05, 11.18, 10.28, 10.73, 11.62, 11.62, 4.4, 8.93, 9.55, 10.28, 11.84, 11.2, 11.5, 11.53, 11.16, 11.09, 10.75, 8.55, 2.97, 1.23, 3.19, 7.54, 7.24, 2.04, 2.97, 5.8, 5.8, 5.95, 6.25, 7.57, 4.81, -12.96, -7.36, -0.0, 5.04, 5.65, 6.35, 7.92, 11.63, 13.72, 14.31, 9.95, 8.0, -2.57, 2.81, 8.3, 10.37, 5.8, 0.0, -0.0, 7.4, 10.61, 12.01, 11.73, 12.01, 13.74, 15.58, 12.45, -0.0, -11.62, -11.62, -0.0, 8.22, 12.07, 12.52, 12.96, 13.41, 13.44, 11.17, 8.87, 9.8, 13.62, 13.62, 14.19, 14.72, 14.72, 14.75, 14.75, 14.3, 14.27, 13.74, 13.59, 13.88, 14.31, 14.79, 15.23, 14.94, 14.03, 13.11, 12.68, 13.07, 13.25, 13.23, 13.34, 13.41, 13.41, 13.28, 13.41, 13.41, 12.07, 9.83, 10.73, 11.62, 11.62, 10.6, 9.97, 9.54, 10.28, 10.96, 11.28, 10.8, 10.87, 11.2, 10.8, 8.93, 4.4, 1.22, 1.33, 4.75, 6.7, 1.64, -0.0, 1.9, 3.12, 3.07, 3.04, 4.59, 8.78, 13.28, 8.85, -1.83, -0.0, 4.38, 6.47, 5.31, 5.37, 7.44, 10.0, 10.91, 10.16, 11.41, 11.04, 0.0, -2.98, 0.0, 0.0, 16.54, 9.67, 10.98, 11.52, 11.7, 11.17, 12.05, 12.72, 13.43, 15.47, 13.82, 10.12, -12.14, -11.18, 0.0, 8.22, 10.4, 12.07, 11.99, 9.8, 9.8, 9.8, 9.8, 13.39, 13.59, 13.75, 14.19, 14.72, 14.3, 14.3, 14.3, 14.27, 14.18, 14.03, 14.06, 14.5, 14.79, 15.67, 15.61, 15.61, 14.9, 14.42, 13.99, 14.14, 14.14, 14.7, 15.65, 15.65, 15.65, 14.3, 14.3, 13.86, 12.96, 11.57, 11.62, 12.07, 10.73, 10.28, 9.83, 9.39, 10.28, 9.97, 9.96, 11.03, 10.27, 10.38, 7.9, 3.87, 2.39, 3.45, 3.53, 3.07, 1.44, 1.58, 1.91, -0.0, -0.0, 1.83, 3.82, 9.44, 13.36, 10.1, 3.18, -0.0, 2.89, 4.24, 4.37, 3.69, 5.49, 7.26, 6.95, 8.98, 13.37, 16.45, 12.15, 14.75, -5.4, 0.0, 10.46, 10.17, 11.0, 12.17, 12.75, 12.89, 12.56, 13.23, 13.65, 13.93, 15.33, 12.36, 13.86, -9.67, 0.0, 0.0, 0.0, -0.0, 7.44, 9.17, 9.48, 9.8, 10.99, 13.39, 13.59, 13.74, 14.19, 14.28, 14.3, 14.3, 14.3, 14.27, 14.18, 14.18, 14.5, 14.5, 14.97, 15.67, 16.1, 16.05, 16.05, 15.78, 15.3, 14.86, 15.05, 15.46, 16.04, 16.09, 16.54, 16.09, 15.65, 15.2, 14.75, 13.8, 12.47, 12.07, 10.73, 10.28, 9.83, 10.28, 9.11, 10.96, 9.97, 10.52, 11.46, 10.18, 8.38, 5.21, 4.4, 3.11, 1.45, 1.33, 3.39, 3.98, 2.02, -0.0, -0.0, -0.0, 4.2, 8.03, 11.57, 10.87, 5.31, 1.0, 1.5, 3.14, 2.91, 3.98, 5.81, 7.82, 8.03, 9.0, 13.25, 15.8, 18.55, 13.52, 13.86, 5.09, 8.35, 10.65, 11.64, 13.1, 14.24, 15.03, 13.07, 12.27, 12.52, 12.02, 13.44, 12.87, 11.5, 12.96, 12.96, -5.6, -10.8, -5.8, 6.67, 9.48, 9.8, 11.44, 11.44, 13.59, 13.59, 13.74, 14.18, 14.28, 14.3, 14.3, 14.3, 14.27, 14.27, 14.62, 14.64, 14.5, 14.94, 15.23, 15.67, 16.1, 16.48, 16.48, 15.98, 15.74, 15.74, 15.93, 16.5, 16.49, 16.48, 16.54, 16.09, 15.65, 15.2, 15.2, 15.2, 13.86, 11.62, 10.28, 8.94, 9.54, 9.54, 10.96, 10.52, 10.14, 10.58, 9.6, 7.68, 6.95, 5.46, 2.7, 1.39, 1.69, 3.65, 2.02, -0.0, -0.0, -0.0, 3.8, 6.01, 7.15, 7.26, 7.79, 6.43, 4.08, 3.53, 1.84, 3.53, 5.75, 8.53, 6.94, 6.2, 8.77, 12.95, 15.82, 18.39, 17.26, 14.29, 9.12, 9.43, 12.3, 13.07, 14.0, 14.26, 15.35, 14.88, 14.23, 12.04, 8.22, 8.53, 13.86, 12.87, 8.58, 10.12, 13.15, -11.2, 3.25, 9.48, 9.17, 9.48, 11.53, 11.53, 13.59, 13.59, 14.18, 13.74, 13.83, 14.3, 14.3, 14.75, 14.3, 14.27, 14.72, 14.62, 15.08, 14.94, 15.38, 15.23, 15.23, 16.05, 16.48, 16.48, 16.22, 15.78, 15.78, 15.93, 15.93, 15.91, 16.05, 16.04, 16.09, 16.54, 16.99, 16.99, 16.09, 14.3, 8.94, 8.94, 9.26, 10.41, 9.97, 10.08, 10.58, 8.3, 8.43, 7.44, 7.9, 6.58, 4.05, 3.25, 3.82, 4.4, 2.39, -0.0, -0.0, 2.97, 5.21, 6.64, 6.95, 8.23, 8.94, 9.42, 8.53, 6.17, 5.46, 6.95, 9.54, 7.33, 3.53, 3.04, 7.38, 13.91, 18.53, 18.48, 17.72, 13.46, 9.92, 10.57, 13.7, 14.82, 15.25, 14.64, 13.87, 13.49, 12.45, 13.86, -3.14, -3.96, 8.85, 3.47, 8.18, 11.2, 10.47, -0.0, -0.0, 6.2, 8.66, 9.17, 11.16, 11.16, 13.59, 13.59, 14.18, 14.18, 13.83, 13.86, 14.3, 14.3, 14.75, 14.75, 14.72, 15.17, 15.07, 14.94, 14.94, 14.75, 15.18, 15.61, 15.79, 16.05, 15.61, 15.82, 15.34, 14.86, 15.25, 15.91, 16.31, 16.48, 16.47, 17.43, 17.43, 17.88, 17.88, 16.09, 12.52, 9.83, 9.39, 10.28, 10.73, 10.08, 9.33, 9.54, 8.8, 8.43, 7.9, 7.27, 5.98, 4.6, 5.06, 3.65, 1.93, 2.39, -0.0, 3.11, 5.46, 6.95, 8.8, 9.2, 10.84, 10.4, 8.94, 7.59, 7.27, 9.54, 8.91, 4.2, -0.0, 1.64, 7.44, 13.68, 18.8, 18.91, 18.54, 14.17, 11.06, 12.57, 14.73, 15.5, 15.62, 13.89, 13.02, 13.34, 12.57, 13.86, -12.72, -10.79, -8.05, -2.72, -0.0, 7.76, 10.39, 8.66, -0.0, -0.0, 7.13, 8.66, 10.79, 10.79, 13.59, 13.59, 13.74, 14.18, 13.83, 13.83, 14.3, 14.3, 14.75, 14.75, 14.72, 15.17, 15.51, 15.38, 14.94, 16.71, 14.31, 15.18, 14.93, 14.51, 15.18, 15.78, 15.3, 16.15, 14.84, 16.31, 13.79, 16.82, 17.43, 16.09, 17.43, 17.88, 17.88, 17.43, 15.65, 12.52, 10.28, 9.83, 9.83, 11.18, 10.18, 9.89, 10.14, 9.21, 8.72, 7.81, 6.3, 5.46, 4.4, 3.11, 3.11, 3.65, 3.65, 4.4, 5.46, 8.55, 8.8, 9.6, 9.3, 9.3, 7.9, 7.59, 8.23, 7.67, 6.64, 1.69, -0.0, 4.8, 9.63, 12.88, 16.04, 17.78, 21.1, 18.79, 17.11, 16.31, 16.05, 16.22, 16.73, 16.38, 13.1, 13.23, 14.11, 11.99, 11.53, -12.3, -12.79, -13.7, -10.75, -0.0, 7.4, 10.3, 6.2, -0.0, 4.66, 9.8, 11.16, 11.16, 13.39, 13.59, 13.59, 13.74, 13.83, 13.83, 14.27, 14.3, 14.75, 14.75, 14.72, 15.17, 15.51, 15.53, 15.38, 14.97, 14.36, 14.31, 15.09, 14.56, 16.66, 15.74, 15.74, 17.1, 16.22, 16.44, 16.41, 16.05, 16.94, 16.94, 17.43, 17.39, 17.39, 17.39, 16.94, 15.16, 12.96, 11.62, 10.28, 10.26, 11.15, 11.09, 10.54, 9.7, 9.35, 8.94, 7.27, 5.7, 4.4, 3.49, 3.49, 4.83, 4.83, 5.9, 5.36, 6.64, 8.93, 6.95, 7.59, 8.22, 8.23, 8.23, 7.87, 6.95, 4.2, 2.7, 2.02, 8.38, 11.55, 12.96, 15.17, 16.62, 22.31, 23.21, 18.78, 16.61, 14.86, 14.13, 15.65, 14.84, 12.79, 13.89, 15.12, 14.7, 11.2, 11.6, -13.86, -11.9, -13.99, -13.19, -0.0, 9.35, 9.44, 3.47, 6.4, 10.43, 11.64, 11.64, 13.39, 13.39, 13.59, 13.74, 13.74, 13.83, 13.83, 14.3, 14.75, 15.2, 14.72, 15.17, 15.61, 15.53, 15.38, 15.41, 14.36, 14.36, 12.62, 14.95, 16.71, 15.98, 16.05, 15.85, 16.73, 16.86, 15.97, 16.86, 17.28, 17.72, 17.84, 17.39, 17.28, 17.28, 16.84, 16.39, 14.62, 12.94, 11.6, 10.65, 11.1, 11.45, 10.72, 9.71, 8.84, 8.75, 6.95, 5.46, 5.29, 5.06, 4.6, 4.83, 4.83, 5.9, 7.27, 6.95, 7.27, 7.27, 7.59, 7.27, 7.27, 8.18, 8.18, 4.6, 3.65, 3.98, 6.7, 9.67, 11.44, 12.42, 13.62, 15.93, 20.13, 21.39, 16.79, 13.92, 10.76, 10.43, 12.36, 16.09, 13.76, 13.51, 16.72, 16.8, 14.7, 11.72, 10.43, 4.81, -0.0, -14.11, -8.18, 2.98, 10.02, 8.94, 8.66, 11.64, 12.5, 12.5, 13.15, 13.39, 13.59, 13.74, 13.75, 13.83, 13.83, 14.3, 14.75, 15.2, 15.2, 15.17, 15.17, 15.53, 15.53, 15.41, 14.97, 14.36, 14.55, 16.31, 16.58, 16.15, 15.51, 15.71, 16.58, 17.46, 17.17, 16.26, 16.26, 16.66, 17.28, 17.28, 17.28, 17.28, 16.66, 16.7, 15.38, 13.62, 12.33, 11.01, 11.45, 11.28, 10.88, 9.74, 9.21, 8.19, 8.15, 6.95, 5.86, 4.83, 4.6, 4.83, 5.9, 5.9, 6.95, 7.27, 6.87, 6.98, 7.59, 8.8, 6.32, 4.6, 3.25, 4.6, 4.8, 7.24, 8.85, 8.22, 6.16, 6.0, 8.18, 14.83, 15.7, 17.99, 3.82, 5.63, 7.26, 5.27, 2.16, 11.06, 14.36, 14.81, 16.06, 17.1, 16.12, 12.52, 11.52, 12.36, 13.02, -13.88, -12.79, -0.0, 8.43, 9.44, 9.8, 10.65, 12.79, 12.79, 13.23, 13.23, 13.39, 13.62, 13.75, 13.83, 14.28, 14.3, 14.75, 15.2, 15.2, 15.17, 15.62, 15.53, 15.53, 15.41, 14.97, 14.55, 14.84, 16.15, 16.58, 15.51, 14.64, 14.64, 16.15, 17.02, 17.41, 17.17, 16.7, 15.82, 16.22, 16.39, 16.39, 16.39, 16.39, 16.22, 15.82, 14.31, 12.62, 11.15, 11.15, 10.88, 10.4, 9.86, 9.3, 8.22, 8.22, 6.01, 5.59, 5.86, 5.86, 6.14, 6.14, 6.95, 7.27, 5.52, 5.54, 6.97, 6.71, 8.94, -9.39, -0.0, 2.71, 5.0, 5.2, 7.82, 8.1, 3.07, 1.23, 2.08, 6.73, 13.28, 18.86, -9.42, -10.0, -6.94, 0.0, -1.83, -4.23, 0.0, 14.75, 15.39, 14.93, 15.42, 15.19, 13.15, 11.6, 12.16, 13.01, 11.88, -13.15, -6.2, 8.58, 10.99, 10.3, 10.91, 11.6, 11.6, 13.23, 13.23, 13.44, 13.62, 13.75, 13.83, 13.83, 14.3, 14.75, 15.2, 15.2, 15.62, 15.62, 15.53, 15.53, 15.54, 15.41, 14.55, 15.43, 15.71, 16.15, 16.37, 15.51, 14.21, 14.87, 16.15, 17.2, 17.17, 17.14, 16.7, 15.82, 15.95, 15.95, 15.95, 15.95, 15.78, 15.82, 14.75, 12.87, 11.15, 10.96, 10.24, 9.74, 9.01, 8.78, 7.9, 8.22, 6.69, 5.72, 5.72, 6.58, 6.14, 6.14, 6.32, 5.06, 5.29, 4.05, 5.92, 7.15, 7.59, -8.49, -8.0, -0.0, 5.4, 7.24, 8.66, 5.11, 1.83, 1.18, 2.82, 8.55, 20.65, 22.58, 21.92, -18.65, -14.13, -7.2, 0.0, 0.0, 0.0, 5.09, 12.79, 14.71, 15.65, 15.34, 13.97, 13.19, 13.13, 12.22, 11.38, 6.4, -13.41, 9.17, 10.47, 10.79, 11.26, 10.87, 10.87, 13.49, 13.49, 13.44, 13.62, 13.62, 13.75, 13.83, 14.3, 14.75, 15.2, 15.2, 15.2, 15.62, 15.62, 15.53, 15.54, 15.54, 14.97, 14.99, 15.71, 15.51, 16.37, 16.37, 16.0, 15.31, 15.31, 16.76, 17.17, 17.3, 16.86, 16.86, 16.39, 15.51, 15.51, 15.95, 15.95, 15.78, 15.18, 13.65, 11.58, 10.46, 9.6, 9.1, 8.73, 8.45, 8.19, 8.19, 7.59, 6.67, 6.34, 5.72, 6.58, 5.59, 5.59, 4.6, 5.06, 3.82, 3.52, 5.7, 6.14, 4.4, -0.0, -0.0, 3.68, 8.53, 7.69, 2.72, 2.45, 4.58, 10.2, 11.18, 15.62, 20.91, 22.79, 19.99, -16.45, -10.66, 0.0, 0.0, 0.0, 1.63, 8.06, 12.65, 14.66, 15.2, 14.31, 13.2, 12.27, 10.43, 10.17, 11.83, 9.8, 12.96, 13.41, 10.01, 10.41, 10.48, 10.48, 13.49, 13.49, 13.44, 13.44, 13.62, 13.76, 13.76, 14.3, 14.75, 14.75, 15.2, 15.2, 15.62, 15.62, 15.53, 15.54, 15.54, 15.41, 15.41, 15.23, 15.27, 15.51, 16.43, 16.62, 16.19, 15.75, 15.87, 16.73, 17.14, 17.3, 16.86, 16.84, 16.39, 16.39, 15.93, 15.95, 15.78, 15.61, 15.18, 12.8, 10.24, 9.74, 9.21, 8.73, 8.19, 8.19, 8.19, 7.59, 6.97, 6.35, 6.06, 6.01, 6.3, 6.3, 5.46, 4.4, 3.65, 3.32, 3.49, 4.6, 6.58, 6.17, 2.97, 5.95, 6.45, 4.39, 2.62, 3.96, 8.93, 9.92, 10.69, 13.8, 16.3, 19.53, 22.83, 20.75, -9.4, -6.59, 0.0, 0.0, 0.0, 2.15, 6.8, 13.28, 14.64, 14.53, 12.74, 11.57, 9.8, 9.8, 11.2, 11.9, 12.39, 11.6, 8.53, 9.66, 9.86, 9.86, 13.53, 13.53, 13.49, 13.49, 13.65, 13.65, 13.76, 13.83, 14.3, 14.75, 15.2, 15.17, 15.62, 15.17, 15.62, 15.54, 15.54, 15.41, 15.41, 15.23, 15.27, 15.27, 15.75, 16.19, 16.19, 16.19, 15.87, 16.29, 16.73, 16.86, 16.86, 16.86, 16.95, 16.95, 16.5, 16.5, 16.39, 16.22, 16.05, 14.65, 12.08, 9.95, 8.78, 8.78, 8.19, 7.59, 7.59, 7.27, 6.97, 6.35, 6.06, 6.35, 6.3, 5.9, 5.46, 4.66, 5.06, 3.32, 1.58, 2.83, 6.7, 6.48, 7.9, 5.29, 5.4, 2.6, 2.82, 8.49, 10.4, 11.14, 11.54, 11.84, 13.88, 16.12, 17.39, 21.03, 21.17, -7.47, -9.66, -7.19, 0.0, 0.0, 7.93, 12.72, 13.88, 13.29, 13.01, 11.68, 10.92, 10.3, 11.09, 12.89, 13.27, 11.75, 10.37, 9.27, 9.67, 9.67, 13.53, 13.53, 13.53, 13.49, 13.49, 13.65, 13.76, 13.83, 14.28, 14.3, 14.73, 15.17, 15.17, 15.17, 15.17, 15.09, 15.54, 15.41, 15.41, 15.23, 15.27, 15.27, 15.31, 15.31, 15.75, 15.75, 15.9, 15.87, 16.43, 16.41, 16.41, 16.41, 16.86, 16.95, 16.95, 16.5, 16.39, 16.66, 16.48, 14.74, 12.51, 10.37, 8.5, 7.59, 7.27, 7.27, 6.97, 6.97, 6.35, 6.35, 6.35, 6.35, 5.98, 5.98, 6.11, 5.21, 5.21, 4.6, 2.69, 2.83, 6.3, 7.27, 7.27, 6.5, 5.0, 3.82, 7.9, 9.45, 10.66, 12.31, 13.55, 12.71, 12.41, 13.25, 14.86, 16.22, 21.73, 21.68, 0.0, -12.64, 0.0, 14.03, 15.2, 13.86, 13.75, 13.07, 12.82, 12.52, 12.86, 12.18, 11.97, 13.19, 14.07, 12.51, 11.69, 10.79, 10.25, 10.25, 13.56, 13.56, 13.53, 13.53, 13.49, 13.65, 13.76, 14.21, 14.28, 14.3, 14.73, 15.17, 15.62, 15.62, 15.54, 15.09, 15.09, 14.97, 14.97, 14.79, 15.27, 15.27, 15.27, 15.31, 15.31, 15.45, 15.45, 15.99, 16.43, 16.41, 16.51, 16.41, 16.41, 16.41, 16.39, 16.39, 16.22, 16.66, 16.12, 14.59, 12.62, 10.13, 8.22, 6.88, 6.95, 6.97, 7.25, 7.51, 7.18, 6.35, 6.35, 6.35, 5.72, 5.56, 6.11, 5.62, 5.32, 5.7, 3.7, 4.2, 6.01, 7.47, 6.4, 6.5, 5.0, 6.4, 8.22, 9.89, 9.74, 10.91, 12.96, 13.55, 12.09, 12.96, 13.07, 16.35, 18.41, 21.2, 21.01, 21.9, 0.0, 14.55, 15.16, 14.64, 14.99, 13.8, 13.02, 14.03, 14.38, 13.97, 13.15, 13.56, 13.35, 13.49, 12.79, 11.97, 10.94, 10.94, 13.69, 13.69, 13.69, 13.53, 13.49, 13.65, 13.65, 14.21, 14.28, 14.3, 14.3, 15.17, 15.17, 15.62, 15.98, 15.54, 14.97, 14.97, 14.97, 14.79, 15.27, 15.27, 15.43, 15.45, 15.45, 15.45, 15.12, 15.55, 16.07, 16.06, 16.06, 16.06, 15.95, 15.95, 16.22, 16.22, 15.98, 15.69, 15.39, 14.57, 12.22, 10.12, 8.85, 7.6, 7.3, 6.95, 7.95, 8.18, 8.29, 7.4, 6.61, 6.08, 5.72, 5.32, 5.56, 5.62, 5.95, 5.95, 5.69, 4.4, 5.72, 6.64, 7.27, 6.58, 4.05, 5.69, 7.42, 9.82, 9.29, 8.43, 11.02, 11.2, 13.99, 15.87, 13.27, 6.64, 14.51, 16.09, 18.11, 19.89, 20.12, 18.85, 17.43, 16.88, 16.78, 16.84, 15.49, 15.05, 14.94, 14.75, 13.65, 13.99, 13.99, 13.99, 13.99, 13.19, 11.97, 11.97, 13.12, 13.12, 13.56, 13.56, 13.53, 13.65, 13.62, 14.19, 14.3, 14.75, 14.75, 14.3, 15.17, 15.17, 15.54, 15.54, 15.41, 15.41, 15.41, 15.41, 15.43, 15.43, 15.43, 15.45, 15.45, 15.56, 15.12, 14.66, 15.17, 15.61, 16.06, 15.61, 15.61, 15.51, 15.78, 15.55, 15.69, 15.36, 14.99, 13.82, 12.15, 10.75, 8.82, 7.6, 7.3, 7.27, 9.17, 8.84, 8.84, 8.29, 7.18, 5.98, 5.72, 5.32, 5.32, 5.39, 5.62, 5.86, 5.95, 6.24, 6.01, 6.64, 7.27, 4.6, 2.97, 4.83, 6.95, 8.82, 9.09, 9.2, 7.87, 9.09, 13.02, 17.09, 20.12, 0.0, 3.01, 10.75, 15.02, 18.52, 21.0, 20.96, 18.33, 17.85, 19.14, 20.04, 18.7, 16.07, 14.73, 14.28, 13.75, 14.06, 13.92, 14.21, 14.05, 13.97, 12.79, 12.79, 13.12, 13.12, 13.12, 13.69, 13.67, 13.65, 13.75, 14.28, 14.3, 14.75, 14.75, 14.75, 14.73, 15.62, 15.54, 15.54, 15.41, 15.85, 15.85, 15.87, 15.87, 15.87, 15.43, 15.45, 15.45, 15.56, 15.12, 14.28, 16.03, 14.71, 15.61, 16.05, 16.06, 15.51, 15.34, 15.78, 15.36, 15.36, 14.59, 13.46, 12.15, 11.06, 9.8, 7.9, 7.59, 7.9, 9.17, 9.6, 8.56, 7.28, 5.98, 5.72, 5.32, 5.34, 5.34, 5.6, 5.39, 5.95, 5.95, 7.08, 7.59, 7.21, 6.32, 5.59, 4.96, 6.01, 8.4, 8.23, 9.46, 9.48, 8.18, 9.4, 12.22, 16.0, 19.09, 4.3, -2.96, 2.63, 9.6, 15.68, 18.65, 18.45, 17.28, 16.96, 18.76, 20.49, 20.05, 17.42, 15.2, 13.41, 12.96, 13.38, 13.74, 13.88, 14.08, 13.89, 13.2, 13.2, 13.15, 13.15, 13.12, 13.69, 13.67, 13.76, 13.75, 14.28, 14.3, 14.75, 14.75, 14.75, 14.75, 14.73, 15.54, 15.54, 15.41, 15.43, 15.43, 15.87, 15.87, 15.87, 15.87, 15.56, 15.12, 15.12, 15.12, 14.28, 13.83, 15.65, 14.75, 15.61, 16.06, 15.95, 15.95, 15.82, 15.36, 15.36, 14.36, 13.11, 11.7, 11.38, 9.7, 8.53, 7.59, 8.22, 8.79, 8.95, 8.45, 7.09, 5.72, 5.08, 5.34, 5.34, 5.34, 5.9, 5.9, 6.17, 6.79, 7.08, 7.59, 5.72, 5.86, 5.03, 6.01, 7.68, 8.8, 7.15, 8.43, 9.6, 9.03, 10.35, 11.62, 14.28, 18.65, 25.48, -3.68, 0.0, 5.18, 12.22, 16.92, 16.39, 15.82, 16.51, 16.97, 18.31, 18.76, 17.42, 15.65, 13.86, 13.41, 13.41, 13.8, 13.88, 13.57, 13.99, 13.02, 13.02, 13.15, 13.15, 13.12, 13.23, 13.76, 13.76, 13.83, 14.3, 14.3, 14.75, 14.75, 15.2, 14.75, 14.73, 15.09, 15.54, 15.55, 15.55, 15.55, 15.99, 15.99, 16.44, 15.99, 16.0, 15.12, 15.12, 15.18, 14.73, 14.73, 14.75, 14.72, 15.17, 15.53, 15.53, 15.82, 15.61, 15.27, 14.58, 14.36, 13.11, 12.19, 11.7, 10.75, 8.79, 7.88, 7.88, 8.09, 8.95, 8.45, 7.36, 5.6, 5.34, 5.34, 5.34, 5.9, 5.9, 6.51, 6.51, 6.51, 7.59, 8.22, 6.14, 5.59, 5.86, 6.01, 7.56, 8.93, 8.8, 8.72, 9.45, 10.17, 10.88, 11.98, 13.41, 17.66, 22.27, 21.46, 0.0, 3.9, 8.68, 15.07, 15.65, 16.51, 16.96, 16.99, 17.43, 17.88, 16.54, 16.09, 14.75, 13.15, 12.39, 12.72, 13.44, 13.7, 13.99, 13.28, 13.28, 13.15, 13.15, 13.25, 13.23, 13.76, 13.83, 13.86, 14.3, 14.75, 14.75, 15.2, 15.2, 15.2, 14.73, 14.73, 15.09, 15.11, 15.11, 15.11, 15.55, 15.99, 15.99, 15.99, 16.0, 15.62, 15.18, 15.18, 14.73, 14.73, 15.17, 15.17, 15.08, 14.97, 14.79, 14.93, 14.93, 14.94, 14.58, 13.91, 13.11, 12.19, 11.38, 10.75, 9.48, 8.16, 7.85, 8.09, 8.18, 8.18, 7.9, 6.11, 5.85, 5.6, 6.3, 6.3, 6.62, 6.51, 7.27, 7.27, 8.64, 8.22, 8.22, 7.33, 7.33, 8.43, 8.82, 7.81, 8.63, 8.67, 9.75, 10.17, 10.94, 12.04, 13.01, 15.49, 16.44, 16.45, 19.67, 13.91, 10.46, 12.65, 15.83, 16.54, 16.54, 16.09, 16.09, 16.09, 16.54, 15.65, 10.75, -0.0, 6.2, 12.39, 13.23, 13.44, 13.53, 13.28, 13.28, 13.12, 13.12, 13.25, 13.33, 13.83, 13.83, 14.3, 14.3, 14.75, 14.75, 15.2, 15.2, 15.2, 14.75, 14.73, 15.17, 15.18, 15.18, 15.18, 15.55, 15.55, 15.99, 16.07, 16.07, 15.62, 15.18, 15.18, 14.73, 14.66, 15.09, 15.09, 14.97, 14.36, 14.15, 13.81, 14.23, 14.18, 13.81, 13.54, 12.76, 12.36, 11.38, 10.57, 9.48, 8.53, 7.85, 7.73, 8.3, 8.59, 7.9, 6.62, 6.27, 6.3, 6.3, 6.62, 6.62, 7.27, 7.27, 7.64, 9.08, 9.76, 8.35, 8.03, 7.15, 8.4, 9.55, 8.24, 8.41, 8.85, 8.63, 9.3, 9.16, 12.95, 14.58, 14.13, -0.0, 7.8, 17.59, 20.72, 22.66, 18.65, 15.18, 14.69, 14.3, 14.75, 15.65, 16.54, 16.54, -0.0, -0.0, -0.0, 6.4, 13.15, 13.86, 13.86, 13.86, 13.59, 13.59, 12.81, 12.81, 13.23, 13.32, 13.83, 13.83, 14.3, 14.3, 14.75, 14.75, 15.2, 15.2, 15.2, 15.17, 14.73, 14.73, 15.18, 15.18, 15.18, 15.62, 15.62, 15.62, 16.07, 16.07, 15.65, 15.2, 15.18, 14.73, 14.66, 14.99, 14.84, 14.64, 13.91, 13.91, 13.52, 13.52, 13.02, 13.41, 13.16, 12.76, 11.91, 11.38, 10.22, 9.17, 6.92, 7.22, 7.44, 8.01, 8.3, 8.3, 7.73, 7.15, 6.92, 6.62, 6.62, 6.95, 7.27, 7.64, 8.68, 9.04, 9.76, 9.42, 8.82, 8.8, 8.4, 9.13, 7.97, 8.41, 8.48, 7.33, 7.81, 8.69, 11.88, 14.17, 14.51, -10.43, -10.43, 17.35, 20.02, 22.6, 20.88, 16.82, 16.41, 16.44, 15.97, 16.76, 17.43, 16.99, -0.0, -0.0, -0.0, 10.43, 14.3, 14.3, 14.3, 12.88, 12.9, 13.41, 12.81, 12.81, 13.33, 13.39, 13.83, 13.83, 14.3, 14.3, 14.75, 14.75, 15.2, 15.2, 15.2, 15.18, 15.18, 14.73, 14.73, 15.18, 15.18, 15.62, 15.62, 15.62, 15.62, 16.09, 15.65, 15.2, 14.75, 14.75, 14.66, 14.4, 14.7, 13.99, 13.75, 13.64, 13.19, 13.19, 12.62, 13.03, 12.79, 12.4, 12.02, 11.38, 9.92, 8.53, 6.62, 7.22, 7.82, 8.01, 8.59, 8.3, 8.42, 7.82, 7.22, 6.95, 6.95, 6.95, 7.64, 7.64, 9.04, 9.04, 9.76, 9.76, 9.3, 8.8, 8.3, 8.3, 8.3, 7.44, 6.95, 6.3, 5.98, 8.22, 11.16, 14.79, 16.8, 19.67, -4.52, 7.98, 18.96, 20.07, 11.0, 10.19, 16.74, 17.13, 17.25, 17.25, 17.97, 18.33, 17.43, 16.09, 15.2, 14.75, 13.99, 13.57, 12.04, 11.87, 12.08, 12.9, 12.89, 12.89, 12.88, 13.39, 13.83, 13.83, 14.28, 14.3, 14.75, 14.75, 15.2, 15.2, 15.2, 15.2, 15.2, 14.75, 14.75, 14.75, 15.2, 15.18, 15.62, 15.62, 15.65, 15.65, 15.65, 15.2, 14.75, 14.75, 14.28, 14.11, 14.21, 13.75, 13.48, 13.35, 12.47, 12.86, 12.47, 12.27, 12.37, 12.05, 12.02, 11.58, 10.43, 8.53, 7.59, 8.12, 9.32, 9.06, 9.62, 9.32, 8.72, 8.53, 7.59, 7.27, 6.95, 7.31, 7.64, 8.68, 9.04, 9.04, 9.76, 9.76, 7.92, 8.8, 8.72, 8.72, 7.28, 6.98, 6.3, 6.58, 5.98, 7.27, 10.24, 13.03, 15.79, 18.53, 0.0, -3.16, 0.0, -0.0, -0.0, 9.17, 15.33, 16.69, 16.84, 17.71, 18.36, 18.41, 17.88, 16.54, 13.59, 10.75, 11.9, 11.5, 11.44, 11.03, 10.8, 12.08, 12.89, 12.89, 12.88, 13.39, 13.39, 13.84, 13.84, 14.3, 14.3, 14.75, 14.75, 14.75, 15.2, 15.2, 14.75, 14.75, 14.75, 14.75, 14.75, 15.18, 15.18, 15.2, 15.2, 15.65, 15.65, 15.65, 14.75, 14.3, 14.28, 14.11, 13.78, 13.99, 13.64, 13.35, 12.64, 12.13, 12.13, 11.53, 11.64, 11.69, 11.33, 11.25, 10.12, 8.85, 8.22, 9.17, 10.22, 10.52, 10.43, 10.12, 9.8, 8.85, 7.97, 7.31, 7.31, 7.31, 8.32, 8.68, 8.68, 9.04, 10.04, 9.76, 9.62, 8.18, 7.33, 7.33, 7.28, 7.51, 5.59, 4.88, 5.98, 6.69, 9.32, 10.24, 12.82, 15.24, 20.39, -11.8, -21.85, -15.74, -0.0, 11.35, 17.27, 17.43, 16.44, 17.15, 17.62, 17.78, 17.43, 15.69, 12.65, 10.12, 9.77, 10.61, 10.94, 10.55, 10.55, 10.55, 12.45, 12.45, 12.88, 12.88, 13.39, 13.39, 13.84, 14.3, 14.3, 14.3, 14.75, 14.75, 14.75, 14.75, 14.75, 14.75, 14.75, 14.75, 14.75, 14.75, 15.2, 15.2, 15.2, 15.2, 15.2, 15.2, 14.75, 14.29, 14.23, 13.56, 13.35, 13.15, 13.23, 12.79, 12.47, 11.75, 11.75, 10.81, 11.18, 11.25, 10.92, 10.99, 10.25, 9.69, 9.34, 10.38, 10.43, 10.75, 10.12, 9.8, 9.97, 8.97, 7.31, 6.98, 7.31, 7.95, 8.68, 8.68, 9.04, 9.04, 9.67, 10.04, 9.4, 8.55, 7.68, 7.33, 7.33, 5.63, 4.0, 3.87, 5.72, 6.64, 8.93, 9.05, 11.16, 14.51, 17.63, 24.7, 23.8, -23.59, -0.0, 18.15, 19.99, 19.01, 16.62, 17.15, 16.66, 16.54, 16.54, 14.84, 11.8, 9.48, 9.62, 10.01, 9.66, 9.82, 9.82, 9.82, 12.45, 12.45, 12.89, 12.88, 13.39, 13.39, 13.84, 13.84, 13.86, 14.28, 14.28, 14.73, 14.73, 14.75, 14.75, 14.75, 14.75, 14.75, 14.75, 14.75, 15.2, 15.2, 15.2, 15.2, 15.2, 15.2, 14.73, 14.23, 13.69, 13.4, 12.79, 12.5, 12.4, 12.39, 12.79, 11.69, 11.37, 10.81, 10.81, 10.55, 10.58, 10.22, 10.3, 9.34, 9.0, 10.03, 10.12, 10.12, 9.48, 9.3, 8.97, 8.31, 6.98, 6.98, 7.68, 7.68, 8.38, 8.68, 9.04, 9.43, 10.04, 10.04, 9.34, 9.27, 8.03, 7.68, 5.86, 5.06, 4.2, 3.87, 6.01, 7.28, 7.87, 9.81, 10.63, 12.7, 15.99, 19.26, 21.39, 24.7, 26.82, 25.93, 25.88, 23.18, 18.99, 17.39, 16.69, 15.61, 15.65, 12.79, 11.5, 9.96, 9.16, 9.5, 9.27, 8.53, 8.53, 8.53, 12.45, 12.45, 12.89, 12.89, 13.39, 13.39, 13.84, 13.84, 14.28, 14.28, 14.29, 14.73, 14.73, 14.73, 14.73, 14.73, 14.73, 14.75, 14.75, 14.75, 15.2, 15.18, 15.18, 15.18, 15.2, 15.2, 14.73, 14.23, 13.59, 13.01, 12.79, 12.58, 12.25, 12.13, 11.99, 11.69, 11.12, 11.16, 10.55, 10.55, 10.24, 10.24, 9.56, 8.93, 8.27, 8.97, 9.48, 9.48, 9.48, 8.97, 8.31, 7.64, 6.65, 6.98, 7.31, 8.03, 8.32, 8.68, 9.43, 9.43, 9.04, 9.4, 9.34, 9.0, 9.27, 7.68, 5.86, 4.96, 4.2, 5.21, 6.95, 6.64, 8.23, 10.2, 10.96, 12.45, 14.17, 16.85, 17.99, 17.78, 21.65, 27.18, 28.43, 25.48, 20.89, 18.33, 17.26, 15.91, 14.75, 11.2, 11.12, 8.53, 8.01, 8.53, 8.85, 8.85, 8.85, 8.85, 12.45, 12.45, 12.89, 12.95, 12.94, 13.39, 13.39, 13.84, 14.28, 14.28, 14.29, 14.29, 14.73, 14.73, 14.73, 14.73, 14.73, 14.73, 14.75, 14.75, 14.73, 15.18, 15.18, 15.18, 15.2, 15.2, 14.75, 14.23, 13.7, 13.44, 12.79, 11.95, 11.85, 11.73, 11.3, 11.3, 11.12, 10.79, 10.91, 10.55, 9.9, 9.9, 9.9, 8.93, 8.27, 8.93, 9.17, 9.17, 9.17, 8.97, 8.31, 7.31, 6.65, 6.98, 7.61, 7.95, 8.32, 9.05, 9.43, 9.04, 9.04, 8.65, 9.34, 9.34, 8.31, 7.27, 6.64, 4.71, 6.01, 5.86, 6.64, 7.27, 8.58, 10.17, 11.14, 11.79, 12.56, 15.1, 15.77, 15.03, 17.82, 22.04, 26.97, 24.83, 22.3, 21.2, 17.43, 16.31, 12.58, 10.79, 8.85, 6.94, 6.7, 6.7, 7.19, 7.19, 7.19, 7.19, 12.45, 12.45, 12.89, 12.95, 13.39, 13.39, 13.39, 13.84, 13.84, 14.29, 14.23, 14.23, 14.66, 14.66, 14.66, 14.66, 14.73, 14.73, 14.73, 14.73, 14.73, 15.18, 15.18, 15.18, 15.2, 15.2, 14.75, 14.29, 13.7, 13.44, 12.79, 12.08, 11.73, 11.06, 10.91, 10.61, 10.41, 10.41, 10.55, 10.28, 10.28, 9.9, 9.9, 9.27, 8.59, 8.93, 8.85, 8.85, 8.85, 8.64, 7.97, 7.31, 6.65, 7.27, 7.95, 7.95, 8.67, 9.05, 9.04, 9.04, 8.68, 8.31, 8.64, 8.97, 8.22, 7.27, 6.32, 5.36, 6.95, 7.27, 6.95, 7.9, 9.1, 10.17, 10.73, 11.37, 12.37, 13.99, 13.75, 12.52, 14.61, 19.34, 23.27, 25.26, 24.83, 22.55, 18.33, 10.43, 5.8, 0.0, -8.85, -5.6, -5.4, 0.0, 0.0, 0.0, 0.0, 0.0, 12.45, 12.45, 12.89, 12.95, 12.94, 13.39, 13.84, 13.84, 13.84, 13.84, 14.23, 14.23, 14.22, 14.66, 14.66, 14.66, 14.73, 14.73, 14.73, 14.22, 14.22, 14.73, 15.18, 15.2, 15.2, 15.2, 14.74, 14.24, 13.59, 13.21, 12.5, 12.5, 11.73, 10.91, 10.41, 10.24, 9.95, 10.41, 10.41, 10.19, 9.92, 9.92, 9.62, 9.27, 8.59, 8.93, 9.26, 8.85, 8.97, 8.31, 8.3, 7.96, 7.59, 7.23, 7.59, 8.3, 8.67, 8.32, 8.68, 8.68, 7.97, 7.97, 8.64, 8.53, 7.78, 7.59, 5.86, 5.63, 6.95, 7.87, 8.23, 7.9, 9.1, 10.0, 10.73, 11.37, 11.87, 12.15, 11.9, 12.22, 13.49, 16.97, 19.34, 23.45, 24.42, 25.03, -18.65, -12.96, -8.85, -12.07, -12.07, -11.62, -11.28, -11.45, -10.79, -9.17, -9.17, -9.17, 12.45, 12.45, 12.88, 12.88, 12.94, 13.39, 13.84, 13.84, 13.84, 14.23, 14.23, 14.23, 14.66, 14.66, 14.66, 14.66, 14.65, 14.65, 14.66, 14.66, 14.66, 14.73, 15.2, 15.2, 15.2, 14.74, 14.69, 14.05, 13.44, 12.58, 12.5, 12.25, 11.73, 10.91, 10.73, 10.04, 10.04, 9.73, 10.04, 10.19, 9.92, 9.92, 9.62, 9.27, 8.93, 9.26, 9.59, 9.26, 9.0, 8.3, 8.32, 7.95, 7.95, 7.59, 7.92, 8.3, 7.95, 8.32, 8.32, 8.3, 7.97, 7.97, 8.31, 8.53, 7.78, 7.59, 6.3, 5.86, 6.95, 7.51, 8.8, 8.8, 9.2, 10.0, 10.4, 10.96, 11.02, 10.37, 10.58, 12.22, 14.51, 15.12, 17.85, 20.41, 23.17, -27.27, -12.79, -8.1, -0.0, 3.14, -0.0, -12.07, -12.52, -12.96, -11.16, -9.17, -9.17, -9.17, 12.45, 12.44, 12.88, 12.88, 12.88, 13.33, 13.77, 13.84, 13.77, 14.23, 14.23, 14.23, 14.66, 14.66, 14.66, 14.65, 14.65, 14.65, 14.55, 14.55, 14.57, 14.73, 15.2, 15.2, 14.74, 14.69, 14.49, 13.88, 13.0, 13.0, 12.36, 12.25, 11.46, 10.91, 10.73, 10.15, 10.04, 10.04, 10.04, 9.49, 9.49, 9.21, 9.27, 9.27, 9.27, 9.26, 10.03, 9.69, 9.0, 8.68, 8.32, 7.95, 8.3, 7.54, 7.92, 7.59, 7.95, 7.95, 7.61, 7.64, 7.64, 7.64, 7.59, 8.22, 8.07, 8.22, 6.58, 5.72, 7.27, 6.95, 7.56, 8.8, 9.11, 9.8, 10.17, 10.43, 10.01, 9.62, 10.24, 11.9, 14.11, 14.49, 14.07, 18.75, 24.39, -22.05, -12.87, -8.05, -1.66, 6.2, 8.87, 9.48, 6.0, -0.0, 13.41, 0.0, 0.0, 0.0, 12.44, 12.44, 12.44, 12.88, 12.88, 12.88, 13.33, 13.77, 13.77, 14.23, 14.23, 14.66, 14.66, 14.66, 14.66, 14.65, 14.53, 14.55, 14.55, 14.55, 14.57, 14.67, 14.75, 14.75, 14.74, 14.59, 14.31, 13.64, 13.0, 12.77, 12.12, 11.99, 11.33, 11.17, 10.41, 10.35, 10.15, 9.67, 9.67, 9.14, 9.49, 9.21, 9.57, 8.93, 9.27, 10.01, 10.37, 9.69, 9.76, 9.04, 8.67, 8.3, 8.3, 7.54, 7.81, 7.81, 7.59, 7.61, 7.61, 7.31, 7.64, 7.64, 7.59, 7.9, 8.07, 7.26, 6.87, 5.98, 6.17, 6.17, 6.17, 7.27, 7.68, 7.87, 9.1, 9.52, 9.34, 10.01, 10.53, 11.83, 13.04, 14.39, 14.83, 17.13, -20.86, -20.75, -13.95, -10.43, -4.93, 3.47, 8.46, 10.12, 10.12, 9.8, 10.73, 13.01, 13.01, 13.01, 12.44, 12.44, 12.44, 12.88, 12.88, 12.88, 13.33, 13.77, 13.77, 14.23, 14.23, 14.66, 14.66, 14.55, 14.55, 14.55, 14.55, 14.55, 14.55, 14.57, 14.57, 14.67, 14.75, 14.75, 14.68, 14.59, 13.83, 13.64, 13.0, 12.25, 11.99, 11.33, 11.33, 11.17, 10.61, 10.04, 9.82, 9.46, 9.46, 9.46, 9.14, 8.87, 9.21, 9.21, 9.3, 9.3, 10.04, 10.04, 10.43, 9.65, 9.05, 8.67, 8.3, 7.81, 7.44, 7.44, 7.27, 7.27, 7.27, 7.31, 7.31, 7.27, 7.27, 7.9, 7.78, 7.54, 7.73, 6.5, 5.45, 5.9, 5.9, 6.77, 7.06, 7.59, 7.9, 8.41, 9.4, 10.28, 11.2, 11.2, 12.15, 13.89, 15.77, 24.07, -28.8, -19.93, -13.24, -8.87, -5.11, -0.0, 7.06, 9.92, 9.8, 9.42, 10.43, 12.11, 12.11, 12.11, 12.44, 12.44, 12.44, 12.44, 12.88, 12.88, 13.33, 13.33, 13.77, 13.78, 14.23, 14.22, 14.55, 14.55, 14.55, 14.55, 14.55, 14.4, 14.57, 15.01, 14.67, 14.73, 14.75, 14.73, 14.68, 14.13, 14.0, 13.83, 13.15, 12.25, 11.99, 11.33, 11.33, 10.79, 10.31, 10.04, 10.04, 9.46, 9.46, 9.09, 9.46, 9.46, 9.21, 9.56, 9.19, 9.3, 9.67, 10.04, 10.04, 9.65, 9.27, 8.67, 7.95, 8.18, 7.81, 7.44, 7.23, 7.23, 7.59, 6.98, 6.98, 6.95, 7.27, 7.59, 7.48, 7.26, 7.54, 6.41, 5.1, 5.72, 5.72, 6.69, 7.06, 7.59, 8.49, 8.94, 9.16, 9.9, 10.87, 10.87, 11.2, 12.79, 19.68, 21.59, -29.95, -20.32, -12.01, -6.88, -4.71, -0.0, 7.06, 9.97, 10.43, 10.63, 11.57, 12.36, 12.36, 12.36, 12.35, 12.35, 12.44, 12.44, 12.44, 12.88, 13.33, 13.77, 13.77, 13.78, 13.78, 14.22, 14.55, 14.55, 14.55, 14.55, 14.4, 14.44, 14.57, 15.12, 15.18, 14.75, 14.75, 14.73, 14.23, 14.15, 14.03, 13.4, 13.15, 12.4, 12.13, 11.46, 11.6, 10.79, 10.61, 10.24, 10.04, 9.46, 9.46, 9.09, 9.4, 9.78, 9.78, 9.19, 9.52, 9.14, 9.45, 9.45, 9.27, 9.27, 9.27, 8.88, 7.95, 7.95, 8.18, 7.81, 7.44, 7.23, 7.23, 6.98, 6.98, 6.98, 6.95, 6.88, 6.98, 7.26, 6.67, 5.75, 5.32, 5.46, 5.46, 6.58, 7.81, 8.58, 9.1, 8.72, 9.3, 9.04, 10.9, 11.5, 11.26, 11.88, 18.68, 22.44, 29.95, -21.46, -12.02, -1.9, -1.96, -0.0, 6.6, 9.87, 11.3, 11.93, 12.36, 12.6, 12.6, 12.6, 12.35, 12.35, 12.35, 12.44, 12.44, 12.44, 12.88, 13.33, 13.33, 13.34, 13.78, 14.23, 14.23, 14.57, 14.57, 14.57, 14.57, 14.57, 14.67, 15.18, 15.2, 15.2, 15.18, 14.74, 14.23, 14.23, 14.03, 13.4, 13.15, 12.4, 11.99, 11.73, 11.33, 11.06, 10.91, 10.52, 10.35, 9.97, 9.4, 9.4, 9.4, 9.4, 9.4, 9.7, 9.14, 9.14, 9.45, 9.45, 9.05, 8.88, 8.55, 8.55, 8.55, 8.49, 8.49, 8.11, 8.11, 7.23, 7.23, 6.65, 6.98, 6.98, 6.95, 7.27, 6.7, 7.42, 6.86, 6.86, 4.99, 5.06, 6.42, 7.27, 8.24, 9.09, 9.48, 9.2, 8.8, 8.82, 10.23, 11.26, 10.9, 12.52, 16.72, 21.65, 26.04, 31.74, -12.92, 1.61, 4.38, -0.0, 4.81, 9.73, 12.82, 13.34, 13.43, 13.35, 13.35, 13.35, 12.35, 12.35, 12.35, 12.35, 12.88, 12.88, 12.88, 12.88, 13.33, 13.34, 13.78, 14.23, 14.23, 14.67, 14.57, 14.57, 14.57, 14.67, 14.73, 14.75, 15.2, 15.18, 15.18, 14.69, 14.24, 14.15, 14.03, 13.44, 12.72, 12.65, 11.99, 11.57, 11.47, 11.47, 10.8, 10.8, 10.52, 9.97, 9.97, 9.4, 9.4, 9.4, 9.7, 9.7, 9.32, 9.14, 9.14, 9.05, 9.05, 9.05, 8.55, 8.88, 8.88, 8.49, 8.49, 8.49, 8.11, 7.44, 7.23, 6.65, 6.65, 6.98, 6.95, 7.27, 6.83, 7.13, 6.59, 5.95, 5.45, 5.29, 6.42, 7.59, 8.24, 8.49, 8.93, 8.99, 8.8, 9.13, 9.03, 9.67, 10.24, 11.87, 15.47, 20.15, 22.32, 27.95, 14.26, 8.77, 11.03, 11.87, 6.8, 10.75, 13.99, 14.84, 14.13, 14.31, 14.31, 14.31, 12.35, 12.35, 12.35, 12.35, 12.79, 12.79, 12.79, 13.23, 13.23, 13.34, 13.78, 13.78, 14.23, 14.67, 14.57, 14.57, 14.67, 14.67, 14.73, 15.2, 15.2, 15.18, 15.18, 14.62, 14.17, 14.16, 13.59, 13.4, 12.92, 12.3, 12.22, 11.8, 11.72, 11.3, 11.06, 11.06, 10.4, 10.4, 10.26, 9.86, 9.7, 9.7, 9.7, 9.32, 9.32, 9.45, 9.45, 9.05, 9.05, 9.05, 8.88, 8.49, 9.2, 8.8, 8.49, 8.49, 8.11, 7.81, 7.23, 6.87, 6.98, 6.65, 6.64, 6.53, 6.53, 6.95, 6.77, 6.77, 6.69, 6.44, 7.59, 7.59, 7.59, 8.49, 8.93, 8.55, 8.18, 7.51, 8.18, 8.6, 9.62, 11.9, 14.95, 18.32, 20.34, 21.76, 18.02, 14.65, 12.73, 13.78, 13.99, 14.42, 15.43, 15.53, 15.08, 14.69, 14.69, 14.69, 12.35, 12.35, 12.35, 12.35, 12.79, 12.79, 12.79, 13.23, 13.23, 13.25, 13.78, 13.78, 14.23, 14.23, 14.68, 14.23, 14.23, 14.73, 14.75, 14.75, 15.2, 15.18, 15.18, 15.14, 14.17, 13.72, 13.59, 13.4, 12.92, 12.49, 12.22, 11.8, 11.72, 11.3, 11.3, 11.06, 11.06, 10.4, 10.26, 9.86, 9.7, 9.7, 9.32, 9.6, 9.6, 9.6, 9.05, 9.05, 9.05, 9.05, 9.05, 8.93, 8.93, 8.93, 8.93, 8.11, 8.11, 8.11, 7.59, 7.23, 6.63, 6.63, 6.68, 6.68, 6.64, 7.06, 7.4, 6.95, 6.95, 6.95, 6.95, 8.24, 8.24, 8.37, 8.72, 8.55, 8.55, 7.4, 6.48, 7.97, 9.66, 11.88, 14.3, 17.22, 18.98, 19.54, 16.12, 14.06, 15.36, 14.26, 14.39, 15.49, 15.65, 16.09, 15.65, 15.65, 15.65, 15.65, 12.35, 12.35, 12.35, 12.35, 12.35, 12.79, 12.79, 12.79, 13.23, 13.23, 13.77, 13.78, 14.23, 14.23, 14.23, 14.23, 14.29, 14.3, 14.75, 14.75, 14.75, 15.18, 15.18, 14.69, 14.17, 13.63, 13.59, 12.97, 12.92, 12.49, 12.44, 11.72, 11.3, 11.3, 11.3, 11.3, 11.06, 10.65, 10.26, 10.26, 10.13, 10.0, 10.0, 9.6, 9.86, 9.86, 9.34, 9.34, 9.34, 9.34, 8.93, 8.93, 8.93, 8.93, 8.93, 8.52, 8.11, 7.72, 8.11, 7.23, 7.23, 6.63, 6.35, 7.06, 7.06, 7.41, 7.51, 7.51, 7.13, 7.47, 6.95, 8.59, 8.59, 8.73, 8.34, 8.72, 8.23, 7.27, 7.27, 8.58, 9.3, 11.75, 13.35, 16.19, 18.31, 18.69, 14.54, 13.46, 14.66, 15.62, 14.26, 15.27, 16.54, 16.37, 15.9, 15.57, 15.57, 15.57, 12.22, 12.22, 12.66, 12.66, 12.66, 12.79, 12.79, 12.79, 12.79, 13.23, 13.23, 13.69, 14.13, 14.13, 14.23, 14.29, 14.3, 14.3, 14.3, 14.75, 14.75, 14.74, 14.74, 14.69, 14.17, 13.61, 13.44, 12.97, 12.97, 12.3, 12.22, 11.8, 11.3, 11.3, 11.3, 10.79, 10.53, 10.65, 10.53, 10.13, 10.13, 10.38, 10.27, 9.86, 9.86, 9.86, 10.1, 9.6, 9.6, 9.6, 9.18, 9.26, 9.26, 9.04, 8.52, 8.52, 8.27, 7.72, 7.72, 7.54, 7.54, 6.96, 6.96, 6.96, 7.44, 7.44, 7.44, 7.51, 7.51, 7.51, 7.87, 7.76, 7.76, 9.67, 8.37, 7.81, 7.27, 7.27, 7.81, 8.58, 9.58, 11.09, 12.7, 14.3, 16.84, 17.48, 14.54, 13.53, 15.02, 15.34, 14.13, 14.57, 15.68, 16.99, 15.9, 14.38, 14.38, 14.38, 12.22, 12.22, 12.66, 12.66, 12.66, 12.79, 12.79, 12.79, 12.79, 13.23, 13.23, 13.69, 14.13, 14.13, 14.23, 14.29, 14.3, 14.3, 14.3, 14.75, 14.75, 14.74, 14.74, 14.69, 14.17, 13.61, 13.44, 12.97, 12.97, 12.3, 12.22, 11.8, 11.3, 11.3, 11.3, 10.79, 10.53, 10.65, 10.53, 10.13, 10.13, 10.38, 10.27, 9.86, 9.86, 9.86, 10.1, 9.6, 9.6, 9.6, 9.18, 9.26, 9.26, 9.04, 8.52, 8.52, 8.27, 7.72, 7.72, 7.54, 7.54, 6.96, 6.96, 6.96, 7.44, 7.44, 7.44, 7.51, 7.51, 7.51, 7.87, 7.76, 7.76, 9.67, 8.37, 7.81, 7.27, 7.27, 7.81, 8.58, 9.58, 10.15, 11.2, 12.79, 14.64, 15.74, 15.07, 14.22, 14.78, 15.38, 14.5, 14.51, 15.16, 16.8, 16.22, 12.52, 12.52, 12.52]}, {"header": {"dx": 0.06612293990616946, "dy": 0.0552356325346848, "nx": 98, "ny": 59, "la1": 35.046912555036876, "la2": 31.78801023549047, "lo1": -121.43107172385933, "lo2": -114.95102361305473, "refTime": "2026041306", "parameterCategory": 1, "parameterNumber": 3}, "data": [-2.09, -2.09, -2.09, -2.24, -3.32, -3.32, -3.32, -3.32, -3.32, -3.32, -2.9, 0.0, 2.72, 6.2, 7.27, 8.38, 9.6, 9.6, 8.94, 8.94, 8.22, 8.53, 7.15, 7.9, 7.26, 7.54, 7.54, 7.51, 8.53, 12.07, 11.62, 12.07, 12.07, -0.0, -0.0, -0.0, -3.82, -5.59, -4.75, -4.14, -3.8, -3.11, -11.62, -9.17, -7.93, -7.0, -4.23, 0.0, 8.2, 7.2, 7.6, 8.68, 9.39, 9.61, 8.97, 9.49, 9.2, 8.68, 7.43, 6.99, 7.21, 6.4, 5.33, 5.36, 4.81, 4.98, 6.17, 6.54, 6.54, 6.54, 7.0, 7.0, 6.54, 6.31, 5.51, 5.71, 4.26, 2.65, 1.78, 2.02, 4.1, -0.0, -10.18, -11.45, -13.41, -13.28, -11.53, -6.0, 0.0, 3.36, 3.36, 7.69, 11.09, 11.17, 10.99, 10.43, 9.31, 8.05, -2.02, -2.09, -2.09, -3.09, -3.32, -3.32, -3.42, -3.42, -3.32, -3.09, -0.96, 1.29, 4.08, 5.32, 8.22, 9.58, 9.2, 10.4, 10.0, 8.55, 9.42, 8.53, 8.53, 8.85, 7.9, 6.71, 6.2, 6.45, 8.22, 12.07, 12.96, 12.96, 7.19, -0.0, -0.0, -0.0, -4.46, -6.44, -7.07, -6.32, 9.83, 11.62, 0.0, -3.47, 0.0, 4.34, 13.91, 15.02, 10.61, 8.83, 9.89, 9.12, 9.12, 8.18, 8.18, 8.43, 7.82, 7.66, 7.43, 6.18, 5.99, 5.33, 4.99, 4.43, 5.27, 5.18, 7.0, 7.0, 6.35, 5.98, 6.14, 6.54, 5.09, 4.62, 5.37, 3.47, 3.16, 2.65, 1.78, 2.02, 4.1, -0.0, -10.18, -11.45, -13.41, -13.28, -11.53, -6.0, 0.0, 3.36, 3.36, 7.69, 11.09, 11.17, 10.99, 10.43, 9.31, 8.05, -2.02, -2.09, -2.09, -3.09, -3.32, -3.32, -3.42, -3.18, -3.18, -2.02, 0.0, 2.15, 3.68, 5.77, 6.87, 8.93, 9.58, 9.58, 9.58, 10.73, 9.3, 8.22, 9.08, 9.77, 11.53, 9.08, 5.0, 0.0, 10.28, 11.18, 12.96, 14.3, 12.87, 5.8, -0.0, -0.0, -5.69, -8.94, -8.4, 0.0, 9.67, 8.66, 7.2, 8.0, 15.36, 19.08, 19.08, 15.72, 8.94, 8.18, 8.83, 8.57, 8.57, 8.57, 7.58, 8.06, 6.8, 7.28, 6.6, 6.18, 5.14, 5.16, 4.43, 5.45, 7.32, 8.43, 7.76, 7.6, 8.28, 7.71, 7.4, 5.81, 3.07, 3.07, 1.37, 1.15, 0.0, 1.83, 0.75, 1.06, 3.96, -8.22, -10.6, -12.3, -13.41, 0.0, 6.0, 9.8, 7.69, 6.2, 6.2, 7.93, 11.16, 11.09, 11.53, 9.8, 8.73, 7.11, -2.02, -2.02, -2.09, -2.09, -2.24, -3.09, -3.18, -3.18, -2.09, 0.0, 0.8, 2.76, 4.48, 5.92, 7.9, 7.9, 9.08, 10.8, 11.21, 10.0, 9.3, 8.58, 8.94, 9.46, 9.08, 9.8, 9.3, 0.0, 6.64, 10.08, 11.53, 12.52, 13.41, 13.86, 12.07, 0.0, 0.0, -7.9, -3.68, 6.0, 12.87, 11.73, 11.17, 12.96, 14.78, 15.2, 13.03, 9.8, 10.12, 8.94, 7.69, 6.4, 6.2, 7.93, 7.1, 6.4, 5.99, 6.1, 5.67, 5.5, 5.33, 5.36, 6.73, 8.83, 9.73, 9.89, 9.39, 9.91, 9.81, 9.09, 8.43, 7.31, 4.47, 1.34, 0.0, -2.38, -2.02, -1.66, 0.0, 0.0, 0.0, -10.8, -11.03, -10.12, 13.19, 14.75, 14.47, 11.44, 8.31, 7.69, 8.05, 10.43, 9.48, 12.72, 11.5, 10.3, 7.79, 6.0, -1.89, -1.89, -1.95, -2.09, -2.09, -2.09, -2.15, -2.01, -0.98, 0.0, 1.5, 2.76, 4.72, 6.2, 6.87, 8.22, 9.08, 9.66, 11.21, 11.45, 10.73, 9.58, 9.6, 9.97, 8.73, 10.04, 9.77, 9.67, 11.18, 9.64, 10.14, 10.18, 11.62, 11.18, 9.3, 8.53, 5.0, 3.14, 0.0, 12.96, 15.38, 12.33, 10.75, 9.8, 11.09, 11.53, 9.8, 7.69, 6.2, 6.2, 8.05, 6.9, 6.9, 7.69, 7.1, 7.58, 5.81, 5.92, 5.5, 5.33, 4.43, 6.0, 9.73, 11.06, 12.35, 11.63, 11.06, 11.38, 11.18, 10.76, 9.62, 10.19, 9.26, 5.94, 1.34, -1.15, -3.53, -3.29, -2.35, 0.0, -10.4, -10.04, -6.2, 10.75, 13.19, 14.9, 14.9, 11.52, 8.66, 8.68, 9.73, 8.66, 10.79, 12.3, 11.6, 9.48, 6.65, 4.71, -1.89, -1.89, -1.89, -1.95, -2.09, -1.95, -2.01, -0.98, 0.0, 0.92, 2.22, 3.25, 4.54, 4.8, 5.75, 6.98, 8.22, 10.8, 11.71, 12.27, 11.87, 11.09, 12.45, 12.04, 10.35, 10.35, 9.67, 9.3, 9.58, 10.96, 9.39, 9.39, 9.83, 11.21, 9.48, 8.73, 6.87, 4.87, 4.23, 18.78, 15.78, 11.17, 10.02, 11.17, 11.29, 12.37, 12.65, 0.0, 0.0, 6.0, 7.19, 8.05, 8.66, 8.66, 7.1, 5.81, 5.31, 5.31, 4.52, 4.24, 5.27, 8.94, 13.02, 13.68, 13.76, 13.01, 11.94, 10.75, 11.38, 10.22, 9.37, 9.23, 9.96, 9.66, 6.74, 2.8, -1.61, -6.94, -12.07, -12.07, -8.85, -10.43, -0.0, 13.39, 12.16, 13.59, 15.2, 11.52, 12.02, 11.68, 10.99, 9.8, 10.47, 11.6, 11.99, 7.44, 4.71, 5.28, -1.89, -1.89, -1.89, -1.95, -1.95, -0.98, -0.92, 0.0, 0.0, 1.83, 2.37, 3.11, 4.36, 4.8, 4.48, 6.2, 7.24, 8.85, 12.14, 12.52, 12.96, 14.3, 14.75, 14.53, 12.16, 11.8, 13.03, 12.27, 11.6, 8.93, 9.6, 9.21, 9.64, 7.87, 7.26, 8.87, 8.31, 6.2, 7.69, 13.41, 14.3, 12.04, 11.28, 10.86, 11.54, 11.03, 12.22, 9.39, 0.0, 6.2, 9.8, 9.48, 8.31, 7.13, 5.46, 4.38, 3.98, 2.63, 2.4, 2.54, 5.8, 12.27, 14.65, 14.86, 14.79, 13.34, 11.79, 10.27, 9.73, 8.46, 7.2, 6.09, 6.85, 5.96, 4.38, 3.82, 0.0, 0.0, 0.0, -12.39, -8.85, -8.93, -0.0, 11.7, 12.52, 13.19, 14.75, 14.53, 13.58, 10.65, 10.18, 9.8, 10.99, 11.53, 9.48, 5.8, 3.68, 4.98, -1.72, -1.77, -1.89, -1.89, -0.98, -0.92, 0.0, 0.0, 0.89, 1.77, 2.88, 3.31, 3.61, 5.0, 4.65, 5.0, 6.21, 7.78, 10.37, 12.72, 13.41, 0.0, -0.0, 0.0, 13.59, 10.75, 13.02, 13.39, 11.8, 10.73, 10.8, 11.71, 11.2, 10.01, 7.9, 6.44, 5.8, 3.92, 4.32, 10.4, 12.96, 13.44, 12.57, 12.01, 10.3, 9.44, 11.8, 12.52, 12.0, 12.65, 12.3, 9.48, 6.2, 4.38, 1.96, 1.66, 1.43, 0.0, 0.0, 0.0, 7.19, 13.57, 14.42, 15.02, 14.17, 12.63, 10.95, 8.68, 6.8, 4.96, 2.72, 1.89, 0.0, 0.0, -1.15, -1.08, 0.0, 0.0, 5.8, 0.0, 0.0, -9.42, -0.0, 11.38, 12.16, 13.28, 14.3, 14.47, 11.88, 10.3, 9.17, 9.96, 11.53, 11.28, 8.73, 6.0, 4.98, 7.69, -1.72, -1.77, -1.77, -1.77, -0.92, -0.92, 0.0, 0.0, 0.89, 1.71, 2.99, 3.91, 3.56, 4.55, 4.93, 5.6, 5.8, 6.9, 8.05, 9.48, 6.0, 0.0, -13.86, -0.0, 12.96, 7.9, 9.83, 13.86, 11.06, 10.12, 9.8, 13.59, 10.75, 7.69, 6.94, 5.2, 0.0, 0.0, 2.49, 7.59, 12.3, 13.99, 10.43, 6.44, 6.0, 6.87, 13.19, 14.42, 13.59, 13.13, 13.2, 10.37, 6.2, 2.72, 0.0, 0.0, -1.5, 0.0, 0.0, 0.0, 11.53, 13.88, 14.23, 14.84, 13.51, 11.38, 9.17, 7.53, 3.79, 0.92, 0.0, -1.83, -2.98, -4.4, -5.63, -4.89, -4.05, 0.0, 9.39, 10.61, 8.2, -7.8, -0.0, 7.4, 10.75, 12.87, 13.41, 12.96, 12.14, 10.73, 9.77, 11.12, 10.73, 10.43, 8.85, 7.58, 7.13, 9.8, -1.72, -1.72, -1.77, -1.77, -0.92, -0.92, 0.0, 0.0, 0.95, 1.71, 2.45, 3.34, 3.11, 3.46, 4.38, 3.68, 5.31, 5.48, 6.6, 6.0, 5.8, 4.1, 6.2, 10.12, 10.12, 10.4, 9.39, 0.0, 10.43, 4.52, 4.66, 0.0, 0.0, 0.0, 3.82, 4.15, 0.0, 0.0, 3.68, 7.19, 9.17, 7.78, 5.98, 5.2, 3.68, 7.85, 11.99, 12.75, 13.2, 12.29, 11.52, 11.72, 11.09, 9.48, 4.81, 0.0, -4.32, -7.26, -6.45, 9.48, 14.16, 14.95, 15.71, 14.24, 13.18, 10.19, 7.2, 6.14, 1.58, -1.96, -4.08, -4.24, -5.31, -6.6, -7.21, -6.95, -8.43, 6.8, 12.87, 12.01, 11.61, 9.71, 4.34, -0.0, 2.5, 6.2, 12.3, 12.52, 12.07, 11.45, 10.04, 10.37, 9.8, 8.85, 7.54, 7.82, 8.87, 11.09, -2.55, -1.72, -1.77, -0.92, -0.92, -0.92, 0.0, 0.0, 0.95, 1.77, 2.54, 3.57, 3.36, 3.57, 3.1, 3.47, 2.21, 4.12, 3.79, 4.47, 4.79, 5.51, 6.31, 6.6, 8.18, 5.8, 4.6, 0.0, 0.0, 0.0, 0.0, 0.0, -12.07, -11.18, -5.0, 0.0, 0.0, 0.0, 3.82, 7.13, 8.94, 6.9, 5.2, 3.19, 4.4, 8.15, 11.0, 10.96, 10.8, 9.17, 12.95, 14.94, 14.58, 13.38, 12.95, 13.29, 12.65, -13.41, -10.04, 13.44, 16.48, 16.55, 15.53, 14.39, 12.92, 12.08, 10.13, 9.23, 5.62, -7.19, -10.41, -8.61, -7.68, -7.36, -8.31, -8.31, 0.0, 15.27, 14.57, 13.46, 11.78, 11.48, 12.29, 7.2, -0.0, -0.0, 3.96, 12.07, 11.62, 10.0, 8.53, 7.44, 4.38, 3.47, 4.66, 7.1, 10.12, 10.99, -2.55, -2.55, -1.77, -0.92, -0.92, 0.0, 0.0, 0.0, 0.95, 1.77, 2.63, 3.36, 3.58, 3.47, 2.47, 2.45, 2.62, 3.09, 3.62, 4.12, 2.72, 3.16, 1.94, 0.0, 0.0, 0.0, 0.0, 0.0, 0.0, 0.0, 0.0, 0.0, 0.0, -8.8, -5.95, -3.82, 0.0, 2.37, 5.6, 6.9, 7.69, 7.44, 4.75, 3.07, 5.7, 8.91, 11.11, 11.18, 9.42, 9.66, 13.25, 15.82, 16.44, 17.39, 16.86, 17.7, 17.67, 14.42, -0.0, 12.27, 17.43, 17.62, 15.54, 14.3, 14.52, 15.86, 17.64, 17.17, 15.92, 15.99, -15.43, -14.03, -9.96, -7.78, -11.6, -13.86, 15.65, 14.79, 13.26, 12.01, 12.9, 12.01, 11.45, 11.25, 7.92, 12.96, -0.0, -0.0, 11.18, 8.22, 0.0, 0.0, 0.0, 0.0, 3.36, 8.94, 10.65, 9.8, -2.55, -2.55, -1.77, -0.92, -0.92, 0.0, 0.0, 0.0, 0.95, 1.83, 2.72, 3.47, 3.58, 3.48, 3.58, 2.8, 2.81, 2.81, 2.72, 3.02, 2.04, 2.2, 1.33, 0.0, 0.0, -1.9, 0.0, 0.0, 0.0, 0.0, 0.0, 0.0, 0.0, -3.53, -2.49, -2.39, 0.0, 2.19, 2.82, 5.4, 6.21, 5.6, 5.4, 5.1, 8.8, 9.76, 10.65, 11.09, 10.04, 11.51, 11.62, 12.37, 13.5, 15.34, 16.71, 16.82, 16.09, 13.28, 8.85, 12.83, 16.09, 16.41, 14.24, 13.28, 16.12, 16.75, 19.99, 24.01, 23.37, 21.78, 18.4, -17.88, -14.9, -12.52, -13.41, 0.0, 14.51, 14.11, 12.48, 11.7, 10.31, 9.27, 7.48, 7.11, 11.4, 9.87, 10.12, -3.04, -0.0, -11.18, -8.22, -5.2, 0.0, 6.0, 9.8, 9.8, 9.8, 9.8, -3.57, -2.72, -1.72, -1.77, -0.92, 0.0, 0.0, 0.0, 0.95, 1.89, 2.81, 2.64, 2.72, 3.48, 3.69, 3.9, 3.9, 2.98, 3.09, 3.0, 2.18, 2.18, 1.23, 0.0, 0.0, 0.0, 0.0, 0.0, 0.0, 0.0, -1.16, 0.0, 0.0, 0.0, 0.0, 0.0, 0.0, 0.0, 2.49, 3.98, 3.68, 4.4, 4.15, 7.9, 9.04, 9.54, 9.21, 10.6, 10.75, 11.53, 11.06, 11.46, 13.41, 13.86, 12.83, 11.45, 11.33, 11.88, 11.36, 11.64, 13.86, 14.47, 14.13, 14.56, 14.75, 14.65, 16.34, 18.88, 20.96, 21.17, 18.28, 11.22, 0.0, -10.8, -15.2, 13.95, 15.25, 14.66, 13.1, 11.9, 8.86, 5.86, 4.13, 4.27, 8.06, 9.2, 7.21, 0.0, -6.45, -11.62, -11.18, -11.62, 12.52, 11.16, 9.17, 9.48, 9.8, 9.16, -3.57, -2.72, -1.83, -1.77, -0.89, 0.0, 0.0, 0.0, 0.95, 1.89, 1.89, 2.72, 2.72, 2.64, 3.69, 3.79, 4.01, 4.01, 3.16, 3.28, 3.18, 2.15, 2.38, 1.34, 0.0, 0.0, 0.0, 0.0, 0.0, 0.0, -1.25, -1.13, 0.0, 0.0, 0.0, 0.0, 0.0, 2.28, 2.19, 2.49, 2.1, 1.91, 3.39, 6.7, 7.81, 8.8, 9.33, 10.18, 10.65, 10.18, 9.96, 10.08, 9.83, 8.49, 8.94, 8.4, 6.42, 8.41, 11.86, 13.28, 12.03, 11.98, 12.58, 13.09, 13.27, 13.07, 14.07, 14.46, 14.4, 15.14, 15.8, 13.25, 5.91, 0.0, 15.27, 15.31, 14.91, 13.58, 12.17, 10.05, 7.91, 4.61, 2.45, 0.0, -1.09, 3.36, 5.15, 6.9, 0.0, 0.0, -11.2, -5.4, 11.6, 11.12, 9.48, 9.8, 8.58, 8.58, -2.72, -2.72, -1.83, -1.89, -0.89, 0.0, 0.0, 0.0, 0.95, 0.95, 1.95, 1.83, 2.72, 2.8, 3.58, 3.69, 3.79, 4.12, 4.12, 4.26, 3.37, 3.37, 2.28, 1.18, 1.27, 1.37, 0.0, 0.0, 0.0, 0.0, 0.0, 0.0, 0.0, 0.0, 0.0, 0.0, 2.39, 2.39, 2.19, 2.1, 1.69, 1.76, 4.8, 6.14, 6.95, 8.18, 9.46, 9.74, 10.14, 9.13, 10.08, 10.28, 9.83, 8.94, 7.6, 6.01, 5.36, 9.08, 10.91, 11.26, 10.88, 10.6, 11.02, 10.6, 9.58, 8.53, 10.41, 12.39, 14.03, 14.8, 12.43, 9.2, 7.4, 8.33, 14.33, 15.72, 14.19, 12.2, 9.62, 8.39, 7.27, 6.13, 3.88, -4.81, -8.22, -8.53, 0.0, 5.15, 11.44, 10.12, 4.38, 5.6, 13.01, 9.48, 9.17, 9.48, 7.69, 7.69, -2.72, -2.72, -1.89, -1.83, -0.92, 0.0, 0.0, 0.0, 0.0, 0.95, 0.98, 1.95, 1.89, 2.8, 2.88, 3.58, 3.58, 4.01, 4.12, 4.12, 3.24, 3.16, 3.16, 2.28, 2.28, 2.45, 1.23, 1.34, 0.0, 0.0, 0.0, 0.0, 0.0, 0.0, 0.0, 0.0, 1.54, 2.6, 2.49, 2.02, 1.76, 3.32, 5.06, 4.96, 6.58, 7.9, 9.45, 9.75, 9.55, 8.8, 9.54, 9.39, 9.39, 8.91, 7.81, 6.64, 6.95, 6.17, 6.71, 7.54, 8.53, 8.23, 8.18, 6.95, 2.39, 5.86, 10.6, 12.14, 13.29, 13.91, 10.81, 6.72, 6.2, 10.36, 14.33, 14.42, 12.84, 11.53, 10.17, 8.61, 8.16, 7.93, 7.92, 0.0, -12.58, -11.87, -8.85, 13.88, 12.27, 9.6, 8.38, 12.52, 12.96, 12.39, 10.82, 9.17, 7.44, 7.44, -2.72, -2.72, -1.89, -1.89, -0.92, 0.0, 0.0, 0.0, 0.0, 0.0, 0.98, 1.01, 2.01, 2.8, 2.8, 3.69, 3.79, 3.9, 4.93, 4.01, 3.9, 2.97, 3.07, 3.18, 3.52, 2.45, 2.72, 1.37, 1.5, 0.0, 0.0, 0.0, 0.0, 0.0, 0.0, 0.0, 0.0, 0.0, 0.0, 2.02, 3.11, 2.39, 4.4, 5.06, 6.58, 7.27, 8.37, 9.2, 8.43, 9.13, 9.64, 9.54, 9.83, 9.33, 8.18, 6.95, 4.4, 4.6, 2.71, 5.2, 6.71, 7.59, 7.27, 2.39, 2.97, 8.4, 10.28, 11.51, 8.93, 7.6, 5.78, 5.4, 7.81, 10.9, 12.29, 11.43, 10.13, 9.79, 10.41, 8.99, 8.68, 9.78, 10.05, 0.0, -4.24, 7.19, 10.73, 13.59, 14.75, 13.58, 11.69, 10.82, 12.96, 13.86, 11.88, 10.82, 7.19, 7.19, -2.72, -2.72, -1.83, -1.89, -0.92, -0.92, 0.0, 0.0, 0.0, 0.0, 0.98, 1.01, 2.07, 2.88, 2.8, 3.04, 3.58, 3.79, 4.67, 4.53, 3.79, 3.16, 3.28, 3.59, 3.3, 2.72, 1.38, 2.4, 0.0, 0.0, 0.0, 0.0, 0.0, 0.0, 0.0, 0.0, 0.0, 0.0, 0.0, 0.0, 1.45, 2.82, 1.69, 3.45, 5.45, 6.69, 7.56, 8.18, 8.8, 9.33, 9.33, 9.13, 9.13, 8.8, 8.18, 5.7, 4.4, 4.8, 6.97, 6.97, 7.9, 7.59, 6.17, 4.6, 6.64, 10.14, 10.28, 9.6, 3.61, 1.43, 1.34, 4.45, 7.38, 9.4, 6.58, 2.72, 1.23, 3.24, 4.92, 7.17, 9.35, 9.92, 8.62, 6.0, 7.69, 4.1, 6.4, 5.48, 10.75, 15.2, 14.79, 11.77, 12.39, 13.41, 13.99, 9.8, 7.44, 7.44, -3.57, -2.72, -2.72, -1.83, -0.92, -0.92, -0.95, 0.0, 0.0, 0.0, 0.98, 1.01, 2.07, 1.94, 2.88, 2.64, 3.38, 3.58, 4.12, 4.37, 3.33, 3.37, 3.37, 3.42, 3.24, 1.83, 2.05, 1.23, 1.21, 1.21, 0.0, 1.24, 1.24, 1.24, 1.21, 1.08, 0.0, 0.0, 0.0, 0.64, 0.7, 1.39, 1.98, 3.42, 5.26, 6.71, 7.27, 8.55, 8.8, 8.72, 8.72, 8.05, 8.05, 7.87, 7.15, 6.64, 5.95, 6.95, 7.59, 8.22, 6.17, 6.17, 5.9, 6.95, 8.4, 9.46, 10.08, 6.7, 1.28, 0.0, 1.01, 3.5, 4.7, 1.29, 0.0, -3.56, -6.19, -7.71, 0.0, 4.95, 8.22, 8.99, 9.55, 8.51, 6.53, 5.8, -0.0, 7.93, 4.66, 6.6, 15.65, 13.1, 11.33, 13.88, 12.79, 10.43, 8.31, 8.31, -3.57, -3.57, -2.72, -1.83, -1.83, -0.86, -0.86, 0.0, 0.0, 0.0, 0.92, 0.95, 1.04, 1.94, 2.88, 2.72, 3.38, 3.38, 2.97, 2.72, 3.04, 4.26, 4.01, 2.8, 2.95, 2.11, 2.0, 2.11, 2.3, 2.36, 1.27, 1.24, 2.3, 2.3, 2.25, 2.19, 1.95, 0.81, 0.73, 1.33, 1.31, 2.02, 3.15, 4.57, 6.08, 7.65, 6.95, 8.18, 8.82, 8.43, 7.67, 8.05, 8.05, 7.87, 7.27, 6.95, 7.27, 7.27, 7.59, 7.27, 7.27, 5.46, 5.46, 9.2, 9.13, 9.96, 10.04, 6.45, 5.08, 3.73, 5.67, 7.08, 7.42, -1.65, -8.4, -9.74, -13.15, -13.41, -10.3, 0.0, 9.17, 9.54, 10.35, 10.23, 8.51, 6.51, 10.43, 14.42, 15.2, 2.35, 12.27, 14.9, 12.02, 11.17, 10.82, 8.31, 6.95, 6.95, -4.38, -3.57, -2.72, -1.83, -1.72, -0.86, -0.86, 0.0, 0.0, 0.0, 0.0, 0.95, 0.95, 1.94, 1.94, 2.72, 2.64, 3.38, 2.43, 2.72, 3.69, 3.59, 4.31, 3.49, 3.69, 3.88, 3.03, 3.05, 3.05, 3.33, 2.3, 2.3, 2.3, 2.3, 3.33, 3.13, 2.88, 2.55, 2.18, 1.94, 2.02, 2.82, 4.08, 5.48, 6.33, 7.6, 6.98, 6.95, 7.33, 8.05, 7.67, 8.05, 7.87, 7.87, 6.95, 7.27, 8.24, 8.73, 7.59, 4.4, 6.32, 9.2, 9.75, 9.2, 9.6, 9.66, 8.85, 8.22, 9.86, 11.99, 12.27, 13.59, 13.96, 9.0, -11.45, -13.15, -16.34, -17.56, -17.3, -11.06, 8.21, 8.33, 8.83, 10.59, 10.48, 9.39, 9.22, 10.3, 8.68, 3.47, 6.4, 14.75, 12.65, 11.33, 9.8, 8.87, 6.4, 6.4, -4.13, -4.13, -3.57, -2.55, -1.72, -0.86, -0.89, 0.0, 0.0, 0.0, 0.0, 0.95, 0.98, 1.94, 1.94, 2.72, 2.64, 2.43, 3.3, 3.59, 3.69, 4.31, 4.07, 4.07, 3.59, 3.78, 4.1, 3.03, 3.13, 2.97, 3.24, 2.19, 2.19, 2.19, 2.19, 3.24, 2.97, 3.58, 2.97, 3.28, 3.28, 4.08, 5.2, 6.16, 6.97, 8.22, 8.22, 7.21, 6.98, 7.33, 7.33, 7.68, 7.68, 6.95, 7.27, 9.2, 9.7, 9.3, 8.94, 0.0, -0.0, 10.28, 10.84, 10.0, 10.4, 9.77, 10.12, 10.75, 11.11, 11.44, 12.11, 13.28, 12.0, -14.13, -5.0, -10.41, -14.3, -16.44, -16.91, -17.43, -3.69, 2.8, 4.67, 5.99, 7.6, 9.28, 9.11, 9.12, 9.47, 10.18, 4.38, 12.39, 11.44, 9.16, 8.59, 7.79, 5.8, 5.8, -4.13, -4.13, -3.36, -2.55, -1.72, -0.86, -0.81, 0.0, 0.0, 0.0, 0.0, 0.98, 0.98, 1.94, 1.94, 1.83, 2.72, 2.43, 2.57, 3.49, 3.59, 4.55, 4.31, 3.95, 3.13, 3.59, 2.87, 3.03, 3.21, 3.13, 2.97, 2.13, 2.13, 2.13, 2.13, 3.16, 2.97, 3.69, 3.78, 3.28, 3.87, 4.48, 5.48, 6.61, 7.61, 7.9, 8.22, 7.81, 8.0, 8.0, 7.9, 7.68, 7.68, 6.32, 8.43, 8.82, 9.45, 9.48, 8.59, 7.59, -0.0, 4.0, 11.18, 10.8, 9.66, 10.82, 11.92, 12.83, 10.66, 9.89, 5.7, 3.87, 7.18, 4.38, -4.66, -9.42, -14.39, -13.86, -14.75, -15.65, -15.27, -6.4, -1.13, 0.0, 3.07, 5.99, 6.6, 7.66, 9.77, 11.38, 12.79, -0.0, 9.17, 8.38, 7.19, 6.43, 6.21, 6.21, -3.17, -3.17, -3.36, -2.55, -2.55, -1.72, -0.81, 0.0, 0.0, 0.0, 0.0, 0.0, 0.98, 0.98, 1.94, 1.83, 1.83, 2.64, 2.5, 3.49, 4.31, 4.55, 4.55, 4.21, 3.22, 3.22, 2.79, 3.03, 2.16, 2.11, 2.11, 2.19, 2.07, 2.07, 2.13, 2.13, 3.16, 3.79, 4.27, 3.41, 3.92, 4.8, 5.69, 6.98, 7.32, 7.6, 7.6, 7.59, 7.23, 6.92, 6.87, 7.9, 6.98, 6.98, 7.67, 8.43, 9.55, 8.22, 8.55, 7.68, 8.8, 8.49, 10.28, 11.03, 8.53, 11.53, 12.22, 12.27, 10.68, 1.28, 0.0, 0.92, 6.53, 11.4, 10.0, -12.34, -15.99, -16.99, -14.75, -12.07, -14.66, -12.89, -8.43, -4.0, 0.0, 3.58, 5.5, 7.36, 10.43, 11.3, 10.92, 9.8, 0.0, 0.0, 7.51, 6.94, 5.99, 5.99, -3.17, -3.17, -3.36, -3.36, -2.55, -1.62, -1.62, 0.0, 0.0, 0.0, 0.0, 0.0, 0.98, 0.98, 1.94, 1.83, 1.83, 2.72, 2.72, 3.58, 3.39, 4.31, 4.32, 3.5, 3.41, 3.32, 2.65, 2.95, 3.21, 2.16, 2.11, 2.25, 2.19, 2.19, 2.28, 2.13, 3.16, 3.9, 3.79, 4.0, 4.48, 5.48, 6.33, 6.98, 7.6, 7.6, 7.6, 7.59, 7.55, 7.51, 7.17, 7.21, 7.56, 7.56, 8.18, 8.8, 9.13, 8.3, 8.72, 9.2, 7.9, 8.23, 8.91, 8.93, 9.67, 11.72, 11.78, 11.87, 5.95, 2.71, 0.89, 1.25, 4.79, 8.88, 13.21, 8.3, -18.79, -17.58, -16.09, -12.52, -13.41, -15.05, -13.59, -5.31, 1.83, 5.81, 7.43, 8.41, 9.8, 9.8, 10.27, 8.72, 6.2, 5.8, 8.53, 7.24, 6.16, 6.16, -3.01, -3.01, -3.17, -3.17, -2.41, -2.41, -1.62, -0.81, 0.0, 0.0, 0.0, 0.95, 0.98, 0.95, 0.92, 1.83, 1.83, 2.72, 2.72, 3.58, 3.39, 3.39, 3.32, 3.41, 3.41, 3.41, 2.65, 2.87, 2.95, 2.11, 2.11, 2.11, 1.13, 1.13, 1.18, 1.18, 2.19, 3.24, 4.01, 5.49, 6.79, 6.84, 7.61, 7.61, 7.6, 7.59, 7.59, 7.27, 7.55, 7.51, 7.17, 7.51, 7.56, 7.87, 8.18, 8.15, 8.43, 8.3, 7.89, 8.48, 8.38, 7.4, 7.9, 8.82, 10.8, 10.41, 11.28, 7.27, 5.2, 4.64, 3.55, 2.37, 3.47, 6.64, 10.98, 14.39, 3.53, -18.68, -12.87, -10.79, -12.52, -14.75, -11.9, -4.24, 3.47, 7.38, 9.47, 9.73, 9.92, 9.27, 8.31, 8.06, 8.29, 7.34, 7.78, 7.73, 6.45, 6.45, -3.01, -3.01, -3.01, -3.17, -3.17, -2.41, -1.62, -0.81, -0.84, 0.0, 0.87, 0.89, 0.89, 0.89, 0.89, 1.78, 1.83, 2.72, 2.72, 3.58, 3.39, 3.39, 3.22, 3.22, 3.32, 3.32, 2.51, 2.65, 1.93, 2.05, 2.05, 2.05, 2.11, 1.13, 1.13, 1.1, 2.19, 3.33, 4.12, 6.45, 7.82, 7.78, 7.93, 7.59, 7.27, 7.27, 7.55, 7.55, 7.51, 7.51, 7.51, 7.51, 8.37, 8.37, 8.82, 8.34, 7.81, 7.67, 8.06, 8.48, 7.56, 7.27, 7.27, 9.09, 10.0, 11.45, 7.9, 4.05, 1.18, 2.24, 2.9, 2.54, 1.65, 2.04, 6.19, 8.54, 9.45, 5.42, -21.46, -12.64, -13.86, -2.81, 0.0, 0.0, 1.72, 5.81, 8.16, 9.39, 8.91, 7.5, 6.98, 6.6, 7.82, 7.82, 7.44, 7.19, 7.18, 7.18, -2.85, -2.85, -3.01, -3.01, -3.17, -2.41, -1.62, -1.67, -0.84, 0.0, 0.87, 0.89, 0.92, 0.92, 1.83, 1.78, 1.78, 2.64, 2.64, 3.48, 3.39, 3.39, 3.39, 3.22, 3.22, 2.44, 2.44, 1.78, 1.93, 2.05, 1.03, 2.05, 2.05, 2.05, 2.19, 2.19, 3.24, 3.33, 5.37, 7.78, 9.25, 8.78, 8.22, 7.64, 6.95, 7.55, 7.91, 8.87, 9.14, 8.08, 8.08, 8.08, 8.0, 8.65, 8.82, 9.14, 9.32, 8.55, 8.63, 8.4, 7.21, 6.4, 7.47, 9.09, 10.0, 10.24, 8.22, 2.82, -1.39, -2.42, 0.0, 2.9, 3.23, 0.0, -5.81, -2.52, 3.68, 7.07, 6.18, 0.0, -18.33, -2.43, 1.08, 1.83, 2.5, 3.76, 5.92, 5.85, 6.16, 5.99, 5.63, 5.81, 6.28, 7.93, 8.22, 6.98, 6.96, 6.96, -2.16, -2.16, -2.16, -3.01, -3.17, -2.41, -2.41, -1.67, -0.84, 0.0, 0.0, 0.89, 0.89, 0.92, 1.88, 1.83, 2.64, 2.64, 2.64, 3.48, 3.39, 3.39, 2.57, 2.44, 2.44, 2.44, 1.59, 1.73, 0.95, 1.0, 1.07, 1.0, 2.13, 2.13, 3.24, 3.24, 4.26, 5.23, 7.18, 8.74, 10.47, 10.12, 8.85, 8.19, 7.86, 6.95, 9.08, 10.63, 10.55, 10.09, 9.01, 8.29, 8.0, 8.27, 8.65, 9.14, 8.93, 8.93, 9.1, 8.8, 6.87, 6.64, 7.27, 7.9, 9.45, 9.1, 8.35, 7.02, 1.33, -5.06, -1.84, 5.6, 7.0, 4.67, -8.29, -16.6, -9.67, 0.0, 4.94, 5.23, 0.0, -3.77, 0.0, 1.88, 2.65, 2.25, 2.21, 2.15, 2.8, 3.69, 4.27, 4.66, 4.66, 7.0, 7.0, 6.6, 6.98, 6.98, -2.76, -2.76, -2.85, -2.85, -3.01, -2.41, -2.55, -1.77, 0.0, 0.0, 0.0, 0.0, 0.89, 0.89, 1.83, 1.83, 2.72, 2.72, 2.72, 2.72, 2.57, 2.57, 2.57, 2.44, 2.44, 1.64, 1.59, 1.63, 0.95, 1.04, 1.07, 1.04, 1.04, 2.07, 3.16, 4.15, 5.23, 6.14, 6.99, 9.87, 11.22, 10.75, 9.5, 8.19, 7.86, 7.27, 9.17, 11.25, 11.25, 10.55, 9.14, 8.37, 8.0, 8.27, 8.27, 8.76, 9.14, 9.52, 8.93, 8.73, 7.21, 6.64, 7.27, 9.2, 8.91, 8.05, 6.95, 7.56, 6.5, 4.6, 5.9, 6.5, 6.94, 7.77, 0.0, -18.33, -18.08, -10.75, -2.31, 3.09, 4.42, 1.5, 0.0, 0.99, 1.82, 1.74, 1.63, 0.89, 0.87, 0.89, 1.72, 2.64, 3.28, 3.95, 5.79, 5.99, 6.4, 6.4, -2.76, -2.76, -2.76, -2.16, -2.28, -2.41, -1.72, -0.89, 0.0, 0.0, 0.0, 0.0, 0.87, 0.92, 1.83, 1.83, 2.72, 2.8, 2.8, 2.65, 2.65, 2.65, 2.57, 2.44, 2.44, 1.64, 1.59, 0.79, 1.46, 1.05, 1.11, 1.15, 1.07, 2.07, 3.07, 3.16, 4.8, 6.14, 7.78, 9.61, 11.22, 11.06, 9.8, 7.9, 7.59, 7.9, 9.17, 11.2, 10.9, 10.19, 8.37, 8.0, 8.27, 7.72, 7.72, 8.09, 8.76, 8.93, 8.93, 8.65, 7.59, 6.01, 6.32, 6.98, 7.44, 6.01, 4.2, 6.17, 6.76, 5.92, 5.46, 4.18, 2.72, 5.71, 7.64, -21.48, -16.27, -13.15, -11.2, -3.62, 2.19, 3.46, 2.3, 0.89, 0.85, 1.71, 1.67, 0.76, 0.0, 0.0, 0.0, 0.89, 1.83, 3.47, 4.4, 4.96, 5.5, 5.5, -2.63, -2.63, -2.76, -2.16, -2.28, -1.62, -1.72, -0.89, 0.0, 0.0, 0.0, 0.0, 0.0, 0.87, 1.83, 1.83, 2.72, 2.57, 2.57, 2.65, 2.65, 2.65, 2.65, 1.64, 1.59, 1.59, 1.59, 0.79, 0.86, 0.0, 0.0, 1.11, 1.07, 2.13, 2.13, 2.97, 4.8, 6.14, 8.21, 10.08, 11.7, 11.38, 10.51, 8.53, 7.59, 8.22, 9.53, 10.58, 10.98, 9.21, 7.44, 7.9, 7.72, 7.72, 7.72, 7.87, 7.87, 8.23, 8.3, 8.65, 7.59, 6.87, 7.33, 6.28, 6.01, 6.14, 4.4, 5.36, 5.06, 4.8, 4.92, 2.82, 0.0, 0.79, 4.66, 0.0, -18.41, -14.3, -13.81, -10.47, -1.54, 2.19, 2.97, 1.03, 0.85, 0.83, 0.82, 0.79, 0.0, 0.0, 0.0, 0.0, 1.25, 3.47, 4.52, 4.66, 5.92, 5.92, -2.63, -2.63, -2.76, -2.2, -1.62, -1.62, -0.86, 0.0, 0.0, 0.0, 0.0, 0.0, 0.0, 0.87, 1.78, 1.83, 1.73, 1.73, 1.73, 1.78, 1.78, 1.83, 1.78, 1.68, 1.59, 1.59, 0.8, 0.82, 0.87, 0.0, 0.98, 1.01, 1.94, 1.94, 2.97, 3.9, 5.09, 6.81, 8.21, 10.08, 11.18, 11.7, 10.75, 9.53, 8.54, 8.54, 9.56, 10.58, 10.98, 9.57, 8.09, 7.72, 7.72, 7.72, 7.87, 7.87, 7.96, 7.96, 7.96, 7.59, 8.22, 7.68, 6.98, 7.33, 6.01, 6.3, 5.95, 4.4, 3.49, 4.05, 4.62, 4.08, 1.5, 0.0, 2.79, 8.1, 0.0, -18.78, -15.61, -13.02, -5.65, 0.0, 1.03, 1.0, 0.0, 0.0, 0.0, 0.0, 0.0, 0.0, 4.38, 6.2, 4.24, 3.36, 4.11, 4.66, 5.31, 5.31, -2.63, -2.63, -2.09, -2.2, -1.62, -0.86, 0.0, 0.0, 0.0, 0.0, 0.0, 0.0, 0.0, 0.87, 0.87, 1.78, 1.68, 1.68, 1.68, 1.73, 1.78, 1.78, 1.78, 1.68, 0.82, 0.8, 0.8, 0.82, 0.87, 0.89, 0.95, 1.89, 2.64, 3.48, 4.67, 4.67, 5.98, 6.81, 8.94, 10.08, 11.18, 11.38, 10.75, 9.48, 8.9, 8.57, 9.56, 10.63, 10.63, 10.28, 8.82, 8.45, 8.09, 7.56, 7.56, 7.28, 7.96, 7.27, 7.27, 7.78, 8.22, 8.22, 5.86, 5.86, 5.06, 5.29, 5.21, 3.7, 2.17, 3.25, 4.62, 6.08, 4.81, 3.25, 2.21, 7.04, 12.34, 0.0, -13.91, -13.95, -8.43, -2.88, 0.0, 0.0, 0.0, 0.0, 0.0, 0.0, 0.0, 10.75, 14.3, 12.39, 6.2, 2.2, 3.36, 3.01, 5.31, 5.31, -2.76, -2.76, -2.09, -1.48, -0.81, -0.86, 0.0, 0.0, 0.0, 0.0, 0.0, 0.0, 0.0, 0.0, 0.87, 0.89, 0.84, 0.84, 0.84, 1.73, 1.73, 1.78, 0.89, 0.85, 0.82, 0.8, 0.84, 0.82, 1.63, 1.78, 1.78, 2.64, 3.38, 4.16, 5.18, 5.34, 6.62, 7.36, 8.7, 9.81, 10.3, 11.38, 11.53, 9.48, 8.53, 8.57, 9.27, 9.96, 10.3, 10.28, 9.56, 8.15, 7.56, 7.56, 7.28, 7.28, 7.27, 7.27, 6.88, 7.26, 7.1, 7.42, 6.42, 5.36, 4.2, 3.82, 2.06, 1.2, 1.26, 3.7, 6.2, 6.41, 7.06, 5.67, 4.24, 15.65, 15.59, 8.8, 3.45, -2.52, -4.66, -3.79, -1.34, 0.0, 0.0, 0.0, 0.0, 0.0, 16.09, 15.2, 14.75, 12.79, 4.38, 0.0, 0.0, 0.0, 2.72, 2.72, -2.02, -2.02, -2.2, -1.57, -0.81, -0.86, 0.0, 0.0, 0.0, 0.0, 0.0, 0.0, 0.0, 0.89, 0.87, 0.82, 0.84, 0.84, 0.84, 0.87, 0.87, 0.87, 0.85, 0.85, 0.0, 0.0, 0.84, 0.82, 1.63, 2.5, 3.3, 4.07, 4.91, 4.91, 5.91, 5.91, 6.94, 7.15, 8.46, 9.81, 10.83, 11.38, 11.25, 9.17, 7.61, 7.94, 8.93, 9.62, 9.96, 9.96, 9.27, 8.59, 7.61, 7.28, 7.28, 6.95, 7.27, 6.88, 6.31, 6.57, 7.1, 7.54, 5.29, 4.4, 4.2, 3.65, 1.14, 1.2, 2.83, 5.86, 6.69, 7.72, 7.13, 7.63, 9.67, -10.43, -10.43, 1.73, 4.71, 3.01, 2.32, 2.4, 2.05, 1.83, 2.0, 2.79, 0.0, 0.0, 16.54, 15.65, 14.75, 10.43, 0.0, 0.0, 0.0, -1.43, -1.29, 0.0, -2.02, -2.02, -1.48, -0.79, -0.81, -0.81, 0.0, 0.0, 0.0, 0.0, 0.0, 0.0, 0.0, 0.84, 0.84, 0.82, 0.82, 0.84, 0.84, 0.87, 0.87, 0.87, 0.82, 0.0, 0.0, 0.0, 0.0, 0.0, 1.63, 3.2, 3.87, 4.66, 5.35, 5.62, 6.6, 6.6, 6.73, 7.82, 8.22, 9.54, 10.02, 11.38, 10.92, 8.53, 7.28, 7.94, 8.6, 9.62, 10.3, 9.96, 9.26, 8.6, 7.94, 6.95, 6.95, 6.95, 6.88, 6.88, 6.57, 6.57, 7.1, 7.1, 6.2, 4.4, 3.32, 3.32, 3.32, 4.96, 6.95, 7.56, 8.37, 8.22, 7.44, 7.4, 9.34, 0.0, -13.57, -13.97, -3.16, 4.46, 14.66, 13.59, 6.28, 5.14, 4.7, 4.7, 3.59, 0.0, 0.0, 0.0, 0.0, 0.0, -4.66, -4.52, -3.44, -3.96, -3.29, -1.29, -1.36, -1.36, -1.43, -0.79, -0.81, -0.81, -0.84, 0.0, 0.0, 0.0, 0.0, 0.0, 0.0, 0.0, 0.0, 0.0, 0.0, 0.0, 0.0, 0.84, 0.87, 0.87, 0.0, 0.0, 0.0, 0.0, 0.0, 0.0, 0.79, 2.35, 3.95, 5.35, 5.99, 6.28, 7.01, 7.23, 7.01, 7.36, 8.83, 9.27, 10.02, 10.52, 10.43, 8.53, 7.59, 8.93, 10.25, 11.07, 10.58, 10.25, 9.59, 8.53, 7.59, 7.27, 6.95, 6.58, 6.88, 6.31, 6.57, 6.57, 7.1, 7.1, 5.04, 4.4, 3.49, 3.49, 4.37, 5.59, 7.56, 7.9, 8.37, 7.27, 6.4, 7.82, 10.15, 10.81, -22.35, -18.96, -16.99, 15.65, 15.65, 13.76, 9.2, 6.42, 6.01, 4.72, 3.93, 3.68, 0.0, 0.0, -6.8, -10.75, -7.93, -4.93, -5.08, -4.9, -5.4, -3.29, -1.36, -1.36, -1.43, -0.74, -0.74, -0.77, -0.77, 0.0, 0.0, 0.0, 0.0, 0.0, 0.0, 0.0, 0.0, 0.0, 0.0, 0.0, 0.0, 0.84, 0.84, 0.0, 0.0, 0.0, 0.0, 0.0, 0.0, 0.0, 0.79, 2.35, 3.83, 4.66, 5.62, 6.28, 6.69, 7.58, 7.58, 7.69, 8.31, 8.99, 9.44, 10.22, 10.12, 8.85, 8.22, 9.17, 11.25, 11.58, 10.43, 10.12, 9.8, 8.85, 7.18, 6.58, 6.58, 6.58, 6.05, 6.31, 6.31, 6.57, 6.7, 7.1, 8.01, 5.46, 5.86, 5.86, 4.37, 5.63, 6.98, 8.54, 8.37, 7.81, 5.32, 6.4, 8.16, 11.72, 10.2, -23.59, -13.11, 11.8, 16.09, 13.24, 9.42, 6.97, 5.8, 5.05, 5.04, 4.45, 0.0, -5.23, -8.43, -10.12, -7.82, -6.63, -6.08, -5.86, -5.86, -5.86, -1.31, -1.31, -1.43, -1.43, -0.74, -0.74, -0.77, 0.0, 0.0, 0.0, 0.0, 0.0, 0.0, 0.0, 0.0, 0.0, 0.0, 0.0, 0.0, 0.0, 0.0, 0.0, 0.0, 0.0, 0.0, 0.0, 0.0, 0.75, 1.5, 2.85, 3.71, 4.38, 5.45, 6.4, 7.01, 7.34, 7.34, 7.93, 8.2, 8.84, 9.24, 9.16, 9.32, 7.93, 7.64, 8.49, 10.43, 10.75, 10.12, 9.8, 8.97, 8.07, 6.58, 6.28, 6.58, 5.78, 6.31, 6.31, 6.57, 6.57, 6.45, 6.7, 6.84, 5.7, 6.14, 5.86, 5.86, 7.51, 8.0, 9.04, 8.0, 6.64, 5.95, 5.76, 7.44, 9.67, 10.58, 9.26, 15.87, 11.8, 24.14, 14.52, 10.0, 7.83, 5.25, 5.05, 5.13, 5.51, 0.0, -4.95, -8.85, -9.48, -8.01, -7.51, -7.24, -7.02, -7.02, -7.02, -1.31, -1.31, -1.36, -1.43, -0.74, -0.74, -0.77, -0.77, 0.0, -0.79, -0.79, -0.78, -0.78, 0.0, 0.0, 0.0, 0.0, 0.0, 0.0, 0.0, 0.0, 0.0, 0.0, 0.0, 0.0, 0.0, 0.78, 1.5, 2.16, 3.53, 4.04, 4.86, 5.11, 6.2, 6.4, 6.57, 7.11, 7.93, 7.93, 8.29, 8.95, 9.36, 8.59, 7.64, 7.36, 8.21, 10.12, 10.12, 9.48, 8.37, 8.07, 7.48, 6.28, 6.28, 6.14, 6.14, 6.7, 6.31, 6.57, 6.0, 5.86, 6.7, 7.64, 7.73, 6.42, 6.14, 7.33, 8.43, 8.4, 9.04, 7.21, 5.2, 5.9, 6.24, 5.72, 5.55, 8.0, 10.43, 10.19, 9.26, 0.0, 0.0, 7.06, 8.18, 6.65, 5.8, 6.42, 6.69, 0.0, -6.4, -6.9, -8.3, -7.85, -8.15, -7.73, -8.53, -8.53, -8.53, -1.31, -1.31, -1.36, -1.36, -0.74, -0.74, -0.77, -0.77, -0.79, -0.79, -0.75, -0.78, -0.78, -0.82, -0.82, -0.82, -0.82, 0.0, 0.0, 0.0, 0.0, -0.76, -0.76, -0.76, 0.0, 0.0, 0.78, 1.5, 2.72, 3.25, 4.04, 4.64, 5.45, 5.71, 6.0, 6.57, 6.67, 7.44, 8.29, 8.29, 8.66, 8.66, 8.76, 7.44, 7.52, 8.07, 9.48, 9.48, 9.48, 8.07, 7.48, 6.88, 5.98, 6.28, 6.58, 6.42, 6.05, 6.31, 6.0, 6.0, 6.57, 6.84, 7.64, 7.36, 7.73, 6.14, 7.33, 7.44, 8.4, 7.81, 6.95, 6.64, 6.17, 5.57, 5.06, 4.98, 5.51, 7.22, 9.0, 9.41, 9.62, 5.44, 3.16, 6.8, 6.6, 7.13, 7.4, 5.96, 0.0, -5.6, -6.67, -8.53, -9.62, -8.53, -8.85, -8.85, -8.85, -8.85, -1.31, -1.31, -1.36, -0.68, -0.72, -0.74, -0.74, -0.77, -0.79, -0.79, -0.75, -0.75, -0.78, -0.82, -0.82, -0.82, -0.82, -0.82, 0.0, 0.0, -0.78, -0.76, -0.76, -0.76, 0.0, 0.0, 0.0, 1.42, 2.06, 3.36, 4.04, 5.03, 5.27, 5.52, 6.36, 6.36, 6.67, 7.19, 7.79, 7.54, 8.37, 8.37, 8.37, 7.44, 7.52, 8.12, 9.17, 9.17, 9.17, 8.07, 7.48, 6.58, 5.98, 6.28, 6.23, 5.78, 6.05, 5.76, 6.0, 6.57, 6.57, 7.08, 7.64, 7.64, 7.48, 7.27, 6.64, 7.07, 7.21, 7.33, 6.64, 7.27, 6.44, 4.62, 4.64, 4.21, 4.71, 5.56, 6.31, 8.84, 11.14, 11.87, 8.09, 5.73, 6.56, 7.07, 6.97, 2.72, -3.14, -7.19, -8.85, -10.41, -10.04, -10.04, -10.79, -10.79, -10.79, -10.79, -1.31, -1.31, -1.36, -0.68, -0.7, -0.74, -0.74, -0.77, -0.77, -0.75, -1.5, -1.5, -1.63, -1.63, -1.63, -1.63, -0.82, -0.87, -0.87, -0.82, -0.78, -0.76, -0.76, -0.76, 0.0, 0.0, 0.0, 0.71, 2.06, 3.36, 4.04, 4.7, 5.52, 5.86, 6.14, 6.63, 6.94, 6.94, 7.54, 7.9, 7.9, 8.37, 8.37, 7.73, 7.15, 8.12, 8.85, 8.85, 8.85, 7.78, 7.18, 6.58, 5.98, 5.94, 5.78, 5.78, 5.52, 5.76, 6.57, 6.57, 6.31, 7.48, 7.78, 8.07, 8.22, 7.27, 6.32, 7.15, 6.95, 7.27, 6.95, 6.58, 5.69, 4.62, 4.47, 4.06, 3.87, 4.66, 6.47, 8.61, 10.31, 12.89, 12.41, 9.02, 5.73, 5.64, 0.0, -10.43, -11.6, -12.07, -8.85, -11.2, -10.8, -11.62, -12.96, -12.96, -12.96, -12.96, -1.31, -1.31, -1.36, -0.68, -0.72, -0.74, -0.77, -0.77, -0.77, -0.73, -1.5, -1.5, -1.58, -1.63, -1.63, -1.63, -0.87, -0.87, -0.87, -1.58, -1.58, -0.74, -0.76, 0.0, 0.0, 0.0, 0.7, 1.36, 2.72, 4.17, 4.86, 4.86, 5.52, 6.14, 6.94, 6.4, 6.84, 6.94, 6.94, 7.28, 7.63, 7.63, 8.01, 7.73, 7.15, 8.12, 8.42, 8.85, 8.07, 7.48, 6.79, 6.51, 5.52, 5.26, 5.52, 5.28, 5.52, 6.05, 6.31, 6.31, 7.18, 7.18, 7.78, 8.53, 8.64, 7.59, 7.33, 7.51, 6.95, 5.9, 6.17, 6.58, 5.69, 5.0, 4.47, 4.06, 3.96, 5.67, 7.93, 9.77, 10.32, 11.61, 12.89, 13.03, 11.1, 0.0, -4.66, -0.0, 8.85, -0.0, -0.0, -0.0, -2.82, -3.82, -7.19, -9.17, -9.17, -9.17, -1.31, -1.31, -1.43, -1.43, -0.72, -0.74, -0.77, -0.77, -0.77, -1.5, -1.5, -1.5, -1.63, -1.63, -1.63, -1.63, -1.72, -1.72, -1.63, -1.63, -1.63, -0.74, 0.0, 0.0, 0.0, 0.7, 1.4, 2.68, 3.36, 4.64, 4.86, 5.45, 5.52, 6.14, 6.44, 6.7, 6.7, 7.14, 6.7, 7.28, 7.63, 7.63, 8.01, 7.73, 7.44, 8.42, 8.72, 8.42, 7.36, 6.79, 6.05, 5.78, 5.78, 5.52, 5.04, 5.28, 5.78, 6.05, 6.05, 6.79, 7.18, 7.18, 7.48, 8.53, 8.64, 7.59, 7.56, 7.33, 6.95, 5.63, 4.4, 4.4, 4.6, 5.0, 5.2, 5.06, 5.93, 7.78, 8.95, 9.77, 9.67, 9.55, 11.9, 12.89, 13.51, -0.0, 6.4, 10.12, 13.41, 12.58, 12.07, -0.0, -0.0, -0.0, -7.44, -9.17, -9.17, -9.17, -1.31, -1.38, -1.43, -1.43, -1.43, -1.48, -1.53, -0.77, -1.53, -1.5, -1.5, -1.5, -1.63, -1.63, -1.63, -1.72, -1.72, -1.72, -2.43, -2.43, -2.3, -0.74, 0.0, 0.0, 0.7, 1.4, 2.76, 3.47, 4.79, 4.79, 5.2, 5.45, 6.07, 6.14, 6.44, 6.53, 6.7, 6.7, 6.7, 7.46, 7.46, 7.8, 7.73, 7.73, 7.73, 8.42, 8.21, 7.93, 7.36, 6.31, 6.05, 5.78, 5.28, 4.8, 5.04, 5.52, 5.78, 5.78, 6.23, 6.88, 6.88, 6.88, 7.59, 8.22, 8.97, 8.22, 7.9, 8.0, 7.27, 6.95, 6.3, 4.4, 2.28, 4.36, 4.62, 6.08, 7.51, 8.01, 8.66, 8.72, 8.62, 8.86, 7.82, 8.44, 12.19, 7.35, 9.66, 11.28, 13.31, 12.39, 10.65, 9.48, 11.99, 14.3, 0.0, -12.96, -12.96, -12.96, -1.38, -1.38, -1.38, -1.43, -1.43, -1.43, -1.48, -1.53, -1.53, -1.5, -1.5, -1.63, -1.63, -1.63, -1.63, -1.72, -2.56, -2.43, -2.43, -2.43, -2.3, -1.54, 0.0, 0.0, 0.7, 2.19, 3.58, 4.31, 4.79, 5.38, 5.74, 6.0, 6.3, 6.57, 6.94, 6.21, 6.53, 6.45, 6.45, 7.18, 7.46, 7.8, 7.36, 7.44, 7.73, 7.51, 7.78, 7.93, 7.1, 6.57, 5.52, 5.28, 5.28, 4.8, 5.21, 5.21, 5.52, 6.23, 6.23, 6.58, 6.88, 6.88, 7.59, 7.9, 8.97, 9.08, 8.24, 8.37, 8.23, 8.23, 8.23, 7.27, 6.14, 5.9, 5.69, 6.67, 7.64, 7.51, 6.77, 6.31, 6.9, 7.2, 6.24, 5.14, 20.86, 8.3, 10.46, 10.43, 11.5, 13.88, 12.09, 10.12, 10.12, 9.8, 8.05, 3.25, 3.25, 3.25, -1.38, -1.38, -1.38, -1.43, -1.43, -1.43, -1.48, -1.53, -1.53, -1.5, -1.5, -1.63, -1.63, -2.43, -2.43, -2.43, -2.43, -2.43, -2.43, -2.3, -2.3, -1.54, 0.0, 0.0, 1.47, 2.19, 3.64, 4.31, 4.79, 5.45, 6.0, 6.3, 6.3, 6.57, 6.63, 6.7, 7.02, 6.76, 6.76, 6.76, 7.18, 7.51, 7.09, 7.09, 6.97, 6.97, 6.7, 6.7, 6.08, 5.63, 5.76, 5.52, 5.28, 5.21, 4.96, 4.96, 5.94, 5.94, 5.94, 6.58, 6.58, 7.27, 7.27, 7.9, 8.64, 9.42, 9.27, 9.09, 8.72, 7.87, 7.87, 7.74, 8.07, 7.59, 6.58, 7.36, 6.84, 6.33, 5.6, 5.6, 5.67, 6.17, 6.31, 6.88, 8.23, 6.64, 11.35, 10.65, 11.92, 13.86, 12.95, 10.92, 11.03, 10.77, 9.13, 6.73, 6.73, 6.73, -1.38, -1.38, -1.38, -1.38, -1.43, -1.43, -1.48, -1.48, -1.53, -1.45, -1.5, -1.58, -2.43, -2.43, -2.43, -2.43, -2.43, -3.2, -2.3, -2.37, -1.54, -0.78, 0.0, 0.74, 1.47, 2.23, 2.95, 3.64, 4.38, 5.45, 6.0, 6.3, 6.3, 6.35, 7.09, 6.7, 6.7, 6.76, 6.76, 6.5, 6.76, 6.76, 7.09, 6.62, 6.36, 6.2, 6.45, 5.86, 5.86, 5.63, 5.41, 5.52, 5.78, 5.46, 5.21, 4.96, 5.26, 5.26, 5.52, 6.28, 6.28, 6.95, 7.27, 7.59, 8.31, 9.08, 9.42, 9.16, 8.93, 8.0, 8.0, 7.81, 8.07, 7.59, 7.27, 6.71, 6.41, 6.09, 6.21, 6.21, 5.6, 6.4, 8.56, 10.8, -0.0, 3.13, 12.01, 12.03, 12.56, 13.86, 12.95, 10.87, 10.43, 9.57, 8.41, 7.21, 7.21, 7.21, -2.06, -2.06, -1.38, -1.38, -1.38, -1.43, -1.48, -1.53, -1.53, -1.45, -1.45, -1.58, -2.43, -2.43, -2.43, -2.43, -3.2, -3.04, -2.3, -1.59, -0.8, 0.0, 0.0, 0.74, 1.42, 2.12, 2.81, 3.53, 4.38, 5.11, 5.71, 6.07, 5.8, 6.35, 6.63, 6.4, 6.7, 6.76, 6.76, 6.5, 6.04, 6.29, 6.29, 6.36, 5.86, 5.62, 5.09, 5.09, 5.41, 5.41, 5.41, 5.18, 5.78, 5.78, 5.46, 5.21, 4.96, 5.26, 5.26, 6.28, 6.28, 6.28, 6.95, 7.64, 8.73, 9.08, 9.52, 9.58, 9.32, 8.18, 8.18, 7.9, 6.69, 6.44, 5.69, 5.45, 6.2, 6.57, 7.01, 6.9, 6.43, 7.13, 10.56, 12.99, 0.0, -0.0, 10.02, 13.28, 13.72, 14.3, 13.19, 10.97, 10.17, 8.68, 7.21, 6.78, 6.78, 6.78, -2.06, -2.06, -2.06, -1.38, -1.38, -1.38, -1.43, -1.48, -1.48, -1.4, -1.45, -1.5, -1.5, -2.3, -2.3, -2.3, -2.3, -2.3, -1.54, -0.8, 0.0, 0.0, 0.76, 0.7, 1.42, 1.42, 2.81, 3.53, 4.38, 5.11, 4.94, 5.52, 5.33, 5.86, 6.14, 5.92, 6.21, 5.98, 6.04, 6.04, 6.04, 6.04, 6.04, 5.54, 5.62, 5.62, 5.09, 5.09, 4.87, 5.18, 5.7, 5.7, 5.7, 4.96, 4.96, 4.73, 4.73, 5.26, 5.26, 5.98, 6.28, 6.28, 6.95, 7.27, 8.38, 8.35, 8.82, 8.82, 8.99, 8.43, 8.03, 7.27, 6.87, 6.5, 5.92, 4.6, 4.4, 5.29, 5.51, 6.43, 7.01, 9.39, 10.35, 11.66, 10.72, 0.0, 10.33, 12.86, 13.15, 14.75, 14.42, 11.68, 8.97, 7.28, 6.1, 5.14, 5.14, 5.14, -2.06, -2.06, -2.06, -2.06, -1.43, -1.43, -1.43, -1.43, -1.48, -1.4, -1.45, -1.5, -1.5, -1.54, -2.3, -2.3, -2.3, -1.54, -0.82, 0.0, 0.0, 0.76, 0.72, 1.4, 1.36, 2.12, 2.81, 3.36, 4.24, 4.46, 4.94, 4.77, 5.02, 5.02, 5.4, 5.4, 5.92, 5.98, 5.98, 6.04, 6.04, 6.04, 5.54, 5.54, 5.32, 5.62, 5.62, 4.87, 4.87, 4.87, 5.7, 5.18, 5.18, 4.96, 4.96, 4.96, 4.73, 4.96, 5.26, 5.98, 5.98, 6.28, 6.95, 7.27, 7.68, 8.02, 8.47, 8.93, 8.72, 8.82, 8.03, 7.59, 6.87, 7.27, 5.95, 4.99, 4.4, 3.65, 4.92, 6.45, 8.66, 9.49, 8.96, 9.67, 10.3, 13.04, 23.77, 14.03, 9.8, 9.49, 13.59, 10.75, 7.0, 4.95, 4.24, 3.58, 3.58, 3.58, -2.06, -2.06, -2.06, -2.06, -2.13, -2.13, -2.13, -2.2, -2.2, -1.4, -1.45, -1.45, -1.5, -1.54, -2.3, -2.3, -1.54, -1.54, -0.82, 0.0, 0.0, 0.76, 0.72, 1.99, 1.93, 2.02, 2.72, 3.53, 3.59, 4.1, 4.31, 4.17, 4.39, 4.24, 4.84, 4.84, 5.2, 5.2, 5.47, 5.26, 5.54, 5.54, 5.54, 5.32, 5.32, 5.09, 5.09, 4.87, 4.87, 4.87, 5.18, 4.96, 4.6, 4.4, 4.96, 4.96, 4.73, 5.21, 5.26, 5.0, 5.59, 5.98, 6.64, 7.35, 7.35, 6.95, 7.74, 7.74, 7.81, 8.58, 7.59, 7.59, 7.59, 7.27, 5.95, 5.7, 5.46, 5.63, 5.46, 7.82, 8.01, 7.93, 7.08, 7.17, 8.14, 11.45, 18.02, 16.28, 9.09, 7.42, 7.0, 4.81, 2.57, 1.94, 1.89, 1.34, 1.34, 1.34, -2.06, -2.06, -2.06, -2.06, -2.13, -2.13, -2.13, -2.2, -2.2, -2.09, -1.45, -1.45, -1.5, -1.5, -1.47, -1.42, -1.5, -0.78, 0.0, 0.0, 0.0, 0.76, 0.72, 1.38, 1.93, 1.96, 2.72, 3.53, 3.59, 3.47, 4.31, 4.17, 4.39, 4.24, 4.24, 4.84, 4.84, 5.2, 5.47, 5.26, 5.54, 5.54, 5.32, 4.8, 4.8, 4.8, 4.87, 4.87, 4.87, 4.87, 4.87, 4.12, 4.12, 4.12, 4.12, 4.73, 4.73, 4.73, 5.52, 5.26, 5.31, 5.31, 5.94, 5.94, 6.64, 6.18, 6.48, 6.95, 6.95, 6.95, 6.95, 6.87, 6.87, 5.98, 5.45, 5.7, 5.7, 6.48, 7.4, 7.18, 7.24, 7.13, 6.35, 6.26, 7.91, 10.85, 16.12, 15.62, 12.29, 8.39, 7.2, 2.21, 0.0, 0.0, 0.0, 0.0, 0.0, 0.0, -2.06, -2.06, -2.06, -2.06, -2.06, -2.13, -2.13, -2.13, -2.2, -2.2, -1.53, -1.45, -1.5, -1.5, -1.42, -1.42, -0.75, 0.0, 0.0, 0.0, 0.0, 0.76, 0.72, 1.34, 1.93, 2.48, 2.72, 3.41, 3.59, 3.47, 3.66, 4.39, 4.24, 4.24, 4.24, 4.24, 4.84, 4.66, 5.47, 5.47, 4.73, 5.0, 5.0, 4.8, 4.23, 4.23, 4.31, 4.31, 4.31, 4.31, 4.12, 4.12, 4.12, 4.12, 4.12, 3.93, 4.73, 4.5, 4.73, 5.26, 5.26, 5.31, 5.64, 5.49, 5.49, 5.76, 5.63, 5.63, 6.11, 6.4, 6.95, 7.15, 7.15, 6.98, 5.21, 5.45, 6.17, 7.27, 7.27, 6.44, 6.2, 5.48, 6.28, 6.47, 8.32, 11.42, 14.54, 14.95, 11.73, 10.41, 8.39, 6.36, 0.0, -2.34, -4.54, -1.56, -1.56, -1.56, -2.72, -2.72, -2.81, -2.81, -2.81, -2.13, -2.13, -2.13, -2.13, -2.2, -2.2, -2.16, -2.23, -2.23, -1.42, -0.71, 0.0, 0.0, 0.0, 0.0, 0.0, 0.7, 0.7, 1.34, 1.93, 2.59, 3.36, 3.41, 3.41, 4.1, 4.31, 4.17, 4.24, 4.24, 4.24, 4.32, 4.92, 4.66, 4.92, 4.73, 4.73, 4.15, 4.4, 4.23, 4.23, 4.23, 3.61, 3.69, 3.69, 3.69, 3.53, 3.31, 3.31, 3.87, 3.93, 3.93, 4.45, 4.5, 4.5, 4.8, 4.8, 4.87, 4.87, 4.87, 4.96, 4.96, 4.96, 5.63, 5.63, 5.63, 5.9, 6.04, 6.04, 6.45, 5.98, 6.69, 7.27, 7.27, 6.69, 6.44, 5.75, 4.75, 5.55, 6.35, 9.26, 11.65, 14.54, 14.88, 12.71, 10.83, 9.42, 8.74, 6.53, 0.0, -4.54, -6.16, -6.16, -6.16, -2.72, -2.72, -2.81, -2.81, -2.81, -2.13, -2.13, -2.13, -2.13, -2.2, -2.2, -2.16, -2.23, -2.23, -1.42, -0.71, 0.0, 0.0, 0.0, 0.0, 0.0, 0.7, 0.7, 1.34, 1.93, 2.59, 3.36, 3.41, 3.41, 4.1, 4.31, 4.17, 4.24, 4.24, 4.24, 4.32, 4.92, 4.66, 4.92, 4.73, 4.73, 4.15, 4.4, 4.23, 4.23, 4.23, 3.61, 3.69, 3.69, 3.69, 3.53, 3.31, 3.31, 3.87, 3.93, 3.93, 4.45, 4.5, 4.5, 4.8, 4.8, 4.87, 4.87, 4.87, 4.96, 4.96, 4.96, 5.63, 5.63, 5.63, 5.9, 6.04, 6.04, 6.45, 5.98, 6.69, 7.27, 7.27, 6.69, 6.44, 5.75, 4.68, 5.6, 6.4, 8.61, 11.8, 13.99, 14.22, 13.64, 11.53, 10.47, 9.67, 9.48, 6.11, -3.24, -9.39, -9.39, -9.39]}]